ECMWFFLT2_sfc_thetae_003.txt.gz
Theta_e
342 343 342 343 344 346 347 349 349 349 349 349 349 351 351 349 347 350 351 348 345 347 347 347 347 348 349 345 344 345 347 347 346 346 346 346 345 345 344 344 344 344 343 343 342 342 342 342 341 341 341 341 342 335 333 331 333 335 333 334 335 335
340 342 342 343 345 346 347 347 345 346 346 348 350 350 349 348 350 346 349 348 346 347 342 341 342 346 342 345 346 346 347 347 346 346 345 345 345 345 344 344 344 344 343 342 342 338 337 341 341 341 341 342 335 333 332 332 331 332 333 333 334 338
340 341 342 343 344 345 345 343 345 345 347 349 350 350 347 348 346 347 347 347 344 342 341 341 340 341 337 338 345 346 347 347 347 346 345 345 344 344 344 343 343 343 342 342 339 334 334 334 333 341 342 334 332 333 333 333 330 330 331 333 333 341
340 340 339 340 342 341 340 340 341 342 342 343 343 346 343 344 340 345 346 344 340 341 341 340 345 344 342 338 340 345 347 347 347 346 345 344 344 344 343 343 342 341 340 342 336 333 336 335 333 331 332 331 332 332 332 331 329 329 330 336 335 341
340 341 341 343 341 339 339 339 341 341 341 340 340 339 339 339 339 340 341 341 343 340 340 338 337 337 337 338 337 341 344 344 343 342 344 338 336 340 336 336 335 336 332 334 333 330 334 333 333 334 330 332 332 331 331 332 330 330 330 333 335 340
331 339 340 339 339 343 341 338 339 340 340 340 340 340 340 339 340 338 338 340 342 341 340 339 338 337 338 338 338 338 342 342 339 341 341 338 336 334 332 332 333 331 330 331 331 330 332 333 333 330 331 330 331 331 332 331 330 329 330 332 336 340
319 324 336 340 340 338 337 338 339 340 339 340 340 337 338 338 340 340 340 340 340 341 340 339 338 337 338 338 337 338 340 340 339 339 340 336 336 336 334 330 329 328 328 329 330 330 332 332 332 330 329 330 330 331 332 328 330 330 331 332 336 339
320 319 324 338 336 337 336 337 341 341 339 345 340 338 336 336 338 337 340 340 340 338 339 338 337 336 337 335 336 337 338 341 338 338 339 333 334 334 333 330 327 327 327 327 329 329 333 333 331 330 330 330 330 331 331 331 330 329 331 332 334 338
318 318 317 327 333 334 335 336 335 335 336 343 338 338 336 337 337 338 337 339 339 333 336 337 339 338 337 336 336 337 336 338 340 337 335 334 332 332 330 329 327 327 327 328 328 325 332 332 332 331 331 331 331 331 331 330 330 329 330 331 333 336
319 320 321 324 323 326 328 331 334 335 336 339 334 335 337 338 337 335 336 337 340 336 335 335 336 337 336 335 336 337 335 338 338 340 337 332 334 331 330 329 329 328 327 328 326 324 326 330 331 331 331 331 331 331 331 329 330 330 330 331 332 334
317 326 321 322 324 321 324 326 329 329 331 331 333 335 335 335 336 335 336 337 337 339 337 336 335 333 335 336 335 337 336 337 338 338 339 339 340 338 333 331 332 331 329 328 325 325 320 327 329 331 331 331 330 329 330 330 329 331 332 331 331 333
318 322 319 318 321 322 319 324 328 325 326 329 334 331 332 332 336 336 338 337 336 337 337 336 335 334 334 335 336 336 337 336 336 337 337 339 337 338 337 337 336 335 334 330 326 325 325 325 326 328 330 330 331 329 329 330 329 330 332 331 331 331
316 316 315 319 317 316 320 324 324 323 326 330 330 329 328 330 330 329 333 338 337 337 336 334 335 336 337 336 335 336 335 335 337 337 336 339 339 338 337 335 334 335 333 333 329 325 328 327 326 326 328 329 330 330 330 331 329 329 332 332 330 330
316 319 320 317 316 315 319 321 321 320 326 319 328 322 328 325 327 325 328 335 340 339 336 337 336 336 336 335 336 337 337 336 338 336 337 338 335 337 337 336 334 333 334 331 329 327 327 326 326 326 326 328 330 330 330 330 330 330 331 333 331 330
318 313 315 316 317 319 316 315 316 317 318 320 327 322 323 325 324 325 326 332 336 337 338 336 336 334 334 334 335 334 337 337 338 339 338 336 336 336 336 336 336 334 332 329 326 329 327 327 325 324 324 326 327 328 329 329 329 330 330 332 333 331
314 315 316 318 318 318 316 316 320 329 317 320 319 323 322 323 323 323 327 331 332 334 335 337 336 336 333 332 334 335 335 335 339 339 338 337 336 335 335 336 337 334 331 330 326 325 327 326 325 325 325 326 326 328 327 328 328 330 330 330 332 332
315 316 316 317 316 317 318 317 316 318 319 317 314 313 313 320 325 324 328 329 330 333 334 333 336 336 333 333 335 333 332 334 338 338 336 334 334 335 334 337 334 334 334 330 328 325 325 326 326 327 326 325 325 326 328 328 328 329 331 329 329 332
316 317 316 316 316 317 320 318 318 319 323 316 316 316 318 318 317 324 325 325 325 329 332 330 333 335 335 336 335 332 333 334 335 336 335 335 333 335 333 334 334 333 332 330 329 326 325 328 330 328 326 325 324 323 324 327 328 330 328 328 329 328
318 318 318 319 319 320 318 318 318 318 318 317 318 318 317 317 320 320 322 325 326 326 327 326 330 331 330 331 334 332 333 336 335 334 333 335 335 335 334 333 332 331 333 334 333 331 330 329 330 329 327 325 323 323 323 324 327 327 327 328 329 331
316 318 317 318 319 319 318 316 313 313 313 315 316 319 317 316 319 318 322 321 324 323 324 325 326 326 328 328 328 331 331 332 332 331 330 331 334 333 331 332 332 332 331 335 333 334 332 330 328 328 326 325 323 323 323 323 324 326 327 328 328 329
316 318 316 317 317 316 315 310 309 313 308 309 317 319 317 316 318 318 320 319 320 323 321 323 325 324 322 329 327 328 329 330 332 331 330 332 334 335 334 333 333 333 332 331 333 335 334 331 328 325 325 323 321 322 323 323 322 324 326 327 327 328
317 317 318 317 315 312 311 311 307 308 307 307 312 313 314 314 317 321 320 320 320 319 317 319 323 322 323 323 324 324 325 327 328 328 328 330 329 331 332 332 333 331 335 332 330 334 335 331 327 323 320 319 318 319 322 322 322 323 324 325 327 327
317 315 317 316 310 311 313 315 311 312 310 311 314 314 312 315 320 316 317 320 321 316 316 316 317 321 322 323 322 322 322 324 326 327 325 324 325 326 328 329 330 329 328 333 333 335 333 330 326 327 325 322 316 315 316 321 323 323 324 323 324 326
316 316 315 318 315 313 316 316 315 313 315 314 314 320 316 317 315 316 317 317 316 316 318 317 317 319 318 319 320 322 322 323 323 328 327 324 323 325 325 327 328 329 330 327 329 331 334 333 329 326 318 319 317 315 310 314 318 322 323 323 323 325
318 315 314 319 316 316 317 314 314 316 317 316 316 313 310 308 314 316 316 314 314 315 317 317 316 317 320 318 319 320 321 322 322 322 325 326 325 326 327 327 327 325 327 328 328 328 330 333 331 329 323 319 315 313 312 317 319 318 323 322 323 325
318 314 315 314 316 316 316 313 313 313 312 311 307 306 306 308 308 308 310 315 316 314 316 315 317 317 318 321 319 319 320 320 321 322 323 324 325 324 324 326 328 326 326 327 328 328 328 329 330 329 329 325 323 316 317 320 319 315 326 324 323 325
317 314 315 315 315 318 316 315 315 314 313 312 306 308 308 311 312 311 313 310 313 317 314 315 316 317 318 319 319 319 319 320 320 320 322 320 321 323 324 325 326 328 327 326 327 327 328 328 328 329 330 328 327 325 325 321 317 319 314 321 324 324
318 315 314 315 315 317 316 317 316 315 315 313 308 310 311 310 314 315 313 313 313 316 315 317 315 315 317 317 318 317 317 318 319 320 322 319 318 320 323 325 326 326 328 327 326 326 326 328 326 325 328 327 327 328 328 326 327 322 320 314 316 322
318 314 313 316 314 316 318 316 312 310 312 312 311 312 313 313 311 314 312 312 312 314 313 315 316 317 317 318 320 318 316 316 317 317 321 319 319 320 319 319 320 320 324 326 326 327 327 326 327 326 324 324 325 325 326 326 328 326 319 316 315 316
317 314 313 314 314 315 316 315 312 310 310 309 313 312 311 310 310 309 311 311 312 311 314 315 314 314 311 316 316 316 315 315 315 317 319 317 318 318 318 318 319 320 321 322 327 328 328 329 329 328 327 325 322 322 322 322 322 323 322 321 316 317
317 315 315 313 313 313 316 312 312 311 311 308 311 310 308 309 309 309 310 310 311 312 315 317 317 313 313 315 315 318 314 314 316 317 316 316 316 317 318 318 318 318 318 319 321 326 326 326 327 327 327 325 324 323 320 319 320 321 320 318 317 317
317 316 315 313 313 313 315 313 313 313 312 309 311 309 307 307 310 308 310 309 310 311 311 313 313 315 313 314 316 313 315 314 315 314 314 315 316 317 317 317 317 317 317 318 319 322 325 325 326 326 326 326 325 325 323 321 321 321 320 319 318 317
316 316 315 313 312 312 313 311 312 313 311 312 310 309 309 307 310 308 308 309 309 308 310 311 310 313 312 313 312 311 312 312 311 312 312 313 313 315 315 314 315 316 316 316 316 317 318 322 325 325 325 327 325 325 325 325 323 322 321 321 319 317
316 316 315 313 312 311 312 310 313 312 312 313 310 310 310 310 310 310 309 308 310 307 309 310 311 309 313 311 311 312 311 310 311 311 312 311 312 312 314 314 314 314 314 315 316 315 316 317 321 325 326 325 325 326 327 327 325 323 322 321 320 318
316 316 315 314 314 311 312 311 313 313 313 313 311 311 310 311 310 310 310 310 308 309 308 309 308 310 312 310 311 310 311 310 311 310 310 310 312 311 311 313 313 314 314 315 315 315 315 316 317 320 323 325 326 326 326 327 327 325 324 323 322 322
317 317 316 314 315 313 312 312 313 312 313 313 313 312 311 311 310 309 309 309 309 308 308 308 309 310 311 310 310 310 311 310 310 310 310 310 309 308 309 309 310 311 311 315 314 314 315 315 315 316 317 321 323 323 324 325 326 326 326 325 324 322
317 317 316 314 314 313 313 312 312 312 311 311 311 310 309 308 310 310 309 308 308 309 308 308 310 310 309 309 310 309 309 309 309 309 308 308 308 308 308 308 309 308 309 310 311 311 313 314 314 315 316 317 319 323 324 325 325 325 326 325 325 324

ECMWFFLT2_sfc_thetae_006.txt.gz
Theta_e
340 340 341 342 342 342 346 349 348 349 348 348 349 350 350 350 350 351 350 348 345 346 345 345 346 345 347 344 344 346 347 347 347 346 346 346 345 344 344 344 343 343 342 342 341 341 341 341 340 340 341 342 339 330 330 330 331 332 331 333 335 334
339 339 341 342 344 344 344 346 342 343 344 347 348 348 347 345 348 344 348 346 344 346 340 339 342 349 343 344 345 346 347 347 347 346 345 345 345 344 344 344 343 342 342 341 341 333 335 340 341 341 342 341 330 329 329 330 330 331 332 332 334 337
340 339 340 341 343 344 342 341 340 341 345 348 349 348 343 346 343 344 345 344 343 339 338 340 341 342 342 345 345 346 347 347 346 346 345 345 344 344 344 343 343 343 341 341 336 330 330 328 326 339 339 330 327 328 328 328 329 331 331 332 332 340
340 339 340 340 342 342 340 340 340 340 343 342 342 345 342 341 344 343 345 342 339 340 339 339 346 346 347 340 343 345 346 346 346 345 345 343 344 343 343 344 343 342 341 339 330 329 331 328 327 325 326 327 327 328 327 327 328 329 330 336 333 341
339 338 339 340 340 339 338 337 338 338 339 337 338 339 338 336 339 343 340 340 339 338 338 338 337 337 334 335 338 341 342 342 342 341 343 336 337 340 339 336 336 338 330 332 330 328 330 330 328 327 328 327 328 328 328 328 327 328 330 333 333 341
338 339 339 338 337 340 340 337 337 337 337 336 337 335 334 336 337 337 339 340 340 337 336 335 334 334 335 335 337 339 340 339 339 339 339 336 333 335 333 332 331 330 329 332 332 331 329 331 329 326 327 326 328 328 327 326 327 328 330 330 334 340
334 336 336 339 338 337 335 336 337 338 337 334 335 334 334 336 336 336 338 340 338 338 337 336 334 334 335 336 337 337 339 339 339 338 337 335 334 333 332 330 328 328 326 327 330 330 328 331 328 329 328 328 328 328 328 326 327 327 329 331 335 340
323 333 335 337 335 334 334 337 341 341 338 344 337 333 332 335 335 336 337 338 340 338 338 337 335 334 334 334 336 336 338 338 338 338 336 336 334 332 332 331 328 327 327 327 328 328 328 331 330 329 328 327 328 327 327 326 327 328 329 331 333 339
317 326 334 335 334 333 334 335 335 336 336 343 334 333 335 334 334 334 335 338 340 337 338 337 335 335 333 333 335 335 336 336 337 337 336 333 334 333 333 331 328 326 325 325 325 326 327 330 330 328 326 327 328 328 327 327 327 328 329 330 331 336
320 325 329 330 330 330 330 331 331 334 338 338 333 334 334 333 332 332 332 335 335 335 336 336 337 336 334 333 334 334 334 334 335 336 336 333 331 330 331 329 328 326 325 324 324 325 327 329 330 329 327 328 328 329 327 327 327 327 328 330 331 333
321 327 322 324 324 327 330 330 332 332 333 331 333 335 334 333 331 332 333 334 334 335 334 335 337 335 335 334 334 334 333 334 335 334 337 336 337 333 330 328 327 327 327 326 325 324 327 328 329 330 329 329 328 328 327 327 327 328 329 330 330 330
316 321 319 322 326 325 326 328 328 326 327 330 332 329 331 333 335 331 334 332 332 335 335 333 334 334 334 334 334 333 333 334 335 335 336 337 336 336 334 335 335 333 331 329 328 324 325 328 328 329 329 329 328 327 327 327 327 328 329 329 330 330
313 314 315 315 318 322 324 324 323 323 327 332 329 328 328 330 332 333 332 332 331 334 334 333 332 333 335 334 334 334 333 334 335 335 334 336 338 336 335 333 332 333 331 330 330 327 324 326 327 328 328 329 328 327 328 327 327 328 328 329 329 330
316 316 315 314 317 318 318 318 320 320 325 324 324 325 328 326 328 329 334 334 333 333 333 332 333 333 332 332 333 334 334 334 334 334 334 335 335 335 334 333 333 332 334 330 328 329 323 323 326 326 326 328 327 327 327 327 327 329 329 328 329 329
315 313 314 314 314 314 314 315 313 314 316 320 322 322 323 322 322 324 332 333 335 334 333 333 332 332 331 330 331 332 333 334 336 335 335 335 334 333 334 334 333 331 330 329 328 327 324 323 324 324 325 326 327 327 326 327 326 328 329 328 328 328
313 313 313 315 312 313 314 314 317 322 314 316 319 320 320 320 321 323 328 327 331 335 334 332 331 331 329 329 330 330 332 334 337 336 335 334 334 332 333 334 333 332 329 329 329 326 325 323 324 324 324 325 326 327 326 326 326 327 330 329 328 328
312 313 314 314 313 312 313 313 313 313 313 313 312 312 315 319 322 325 325 324 326 331 331 333 334 333 329 328 330 330 331 333 336 337 334 332 331 332 333 333 332 333 332 329 329 328 324 324 324 324 323 324 325 326 326 326 326 327 329 329 328 328
312 313 313 313 313 313 314 314 314 316 320 314 315 317 319 322 322 323 322 322 325 328 329 331 333 334 332 332 331 330 330 331 333 334 332 331 331 333 332 333 332 332 332 331 328 327 325 323 326 325 324 324 324 324 325 325 326 328 326 327 328 328
313 312 312 313 314 314 315 314 314 314 313 313 315 316 318 319 320 320 321 322 323 324 325 325 328 330 331 333 331 329 330 333 333 332 332 330 330 331 331 332 332 331 332 332 329 329 330 327 327 326 326 324 323 323 323 324 325 326 325 326 327 330
312 313 313 313 315 314 314 314 312 312 312 313 312 316 315 316 316 318 321 321 320 320 324 324 323 325 326 328 328 328 329 331 330 330 329 328 331 332 332 330 329 331 330 331 331 331 331 328 327 326 324 324 324 323 322 323 324 325 326 326 326 327
312 313 314 314 314 312 311 306 308 310 310 310 313 313 314 313 314 316 316 318 319 319 320 321 321 321 321 328 323 324 324 325 328 329 328 328 329 331 330 330 331 329 328 326 328 332 333 331 326 324 324 322 321 322 322 321 322 324 324 325 325 324
312 314 313 314 315 313 309 305 308 308 307 312 312 309 310 311 313 317 316 315 316 314 316 317 321 320 319 319 319 320 322 324 326 326 327 328 329 330 329 329 330 329 331 329 327 331 332 326 323 321 320 318 317 318 320 320 320 321 323 324 325 325
312 314 313 315 312 311 310 309 307 306 311 310 310 311 309 314 317 314 314 315 314 313 313 313 315 322 319 319 317 317 318 320 321 324 324 323 324 324 325 328 328 326 327 329 327 329 329 327 323 323 321 318 315 315 315 317 319 320 320 322 324 324
313 314 314 315 314 310 311 310 309 309 310 309 310 315 312 312 313 313 313 313 313 312 313 313 315 317 316 316 316 317 317 318 318 321 323 323 322 324 322 324 326 328 328 324 326 328 331 329 325 322 317 317 315 313 309 312 315 319 321 321 321 323
313 313 313 316 312 313 314 311 313 313 313 312 312 308 307 309 311 314 312 311 312 312 313 313 313 315 318 314 315 316 317 317 318 318 320 320 322 324 325 324 324 325 326 325 324 324 325 328 327 326 319 316 313 311 311 312 315 316 319 320 321 321
312 312 313 312 313 313 312 311 310 309 308 308 307 306 303 306 307 309 308 310 312 312 313 312 313 313 316 318 314 314 315 318 317 318 320 318 318 319 320 323 324 323 323 325 325 325 324 328 327 326 326 323 318 313 312 316 315 311 316 321 321 322
313 311 313 312 313 313 309 310 311 310 310 309 308 306 304 305 307 307 308 309 310 311 312 312 313 313 314 317 315 314 315 315 316 317 319 316 316 317 318 320 322 323 323 322 323 324 325 326 328 326 326 326 325 323 321 317 313 314 312 313 319 320
313 313 312 312 312 311 310 310 310 310 310 308 307 305 307 308 307 310 307 309 311 312 313 312 311 313 313 317 314 314 313 313 314 316 318 316 315 316 317 318 318 318 320 322 322 323 322 324 324 324 326 325 325 326 325 323 322 317 313 310 313 317
313 312 311 312 312 311 312 311 312 312 311 309 306 308 309 311 310 310 308 310 310 311 310 313 313 313 312 315 316 313 311 312 312 314 316 316 315 316 315 315 316 316 316 318 321 322 323 325 326 325 325 325 326 325 325 324 324 323 318 313 314 315
312 311 311 312 312 311 312 314 312 311 311 309 309 308 307 308 308 307 307 307 308 309 309 311 310 309 310 313 312 312 311 310 310 314 316 312 313 314 314 314 314 314 314 314 316 319 321 323 324 325 325 325 323 322 323 322 322 322 321 319 316 315
312 311 312 311 311 312 312 314 312 309 310 309 308 308 306 306 307 306 306 306 307 307 310 310 310 310 310 311 312 314 309 311 312 314 313 312 311 312 313 313 313 313 313 313 313 315 316 319 322 323 325 325 324 324 323 320 320 321 320 317 316 317
312 310 311 311 310 312 313 312 311 308 308 309 309 308 306 307 306 307 307 307 307 308 309 310 310 309 310 310 311 310 311 310 312 310 310 310 311 311 311 311 311 312 312 312 312 314 312 314 315 318 321 324 324 324 324 323 323 321 320 320 319 317
312 310 311 311 310 311 313 311 309 309 307 309 309 309 307 307 306 307 307 307 307 307 307 309 308 309 309 309 309 307 307 306 306 309 308 309 309 310 310 310 310 310 310 310 311 311 311 312 313 314 316 320 323 323 323 324 324 321 321 322 320 317
314 311 311 310 310 310 312 311 309 309 309 309 308 308 307 307 307 306 308 306 307 306 307 308 307 309 310 308 309 310 308 307 307 307 309 308 308 308 308 308 308 308 309 310 310 310 310 311 312 313 315 317 319 322 324 324 323 323 322 320 319 317
314 312 311 310 309 309 311 311 310 310 310 309 309 307 307 307 308 306 307 307 307 306 306 307 308 308 310 308 308 306 306 306 307 306 307 306 308 306 306 306 307 308 308 309 309 309 308 309 310 311 312 313 316 318 321 323 324 324 324 322 321 320
314 313 311 310 309 309 310 310 310 309 309 310 310 308 308 309 309 308 307 307 307 306 307 306 307 308 308 308 307 307 308 306 306 306 307 307 306 306 306 306 306 305 306 310 308 307 307 308 308 308 310 311 312 314 317 319 321 323 324 324 323 324
314 314 312 311 310 309 309 308 309 310 309 309 309 308 308 308 308 308 308 307 307 306 306 307 308 308 308 306 306 306 305 306 305 305 305 306 306 305 305 304 304 304 304 306 306 306 306 307 307 307 308 309 310 311 313 316 319 321 322 322 322 323

ECMWFFLT2_sfc_thetae_009.txt.gz
Theta_e
336 339 342 343 344 345 347 348 348 348 348 347 347 347 348 349 350 350 349 348 344 343 342 343 343 343 347 345 345 345 346 347 346 346 346 345 345 344 344 344 344 342 342 341 341 341 340 341 340 341 340 337 336 328 329 328 329 331 329 333 335 332
335 336 338 341 343 345 346 346 343 344 344 344 345 345 344 342 347 344 348 346 343 345 339 339 342 346 342 344 345 345 346 346 345 345 345 344 344 342 343 343 342 342 342 341 340 332 333 334 339 340 339 338 328 326 328 328 328 329 329 329 333 334
336 335 336 337 341 343 343 343 343 343 344 346 345 345 341 343 340 340 343 343 342 340 338 341 341 342 341 345 345 346 346 346 346 346 345 344 344 343 342 343 342 341 341 340 331 327 327 324 325 336 334 329 325 325 327 328 328 329 330 329 329 338
336 335 335 334 340 341 342 342 343 343 341 341 342 343 342 340 338 340 341 339 338 338 338 338 344 346 345 342 342 345 346 346 346 346 345 344 343 343 342 342 342 341 341 336 327 326 325 322 324 325 325 326 325 324 326 326 327 328 328 333 330 339
336 335 335 336 341 340 340 340 341 343 342 342 342 341 338 339 338 339 342 338 337 337 335 335 336 337 336 337 337 337 339 341 340 340 343 337 338 339 338 335 335 336 332 330 327 325 327 325 324 324 324 325 325 323 326 327 326 327 328 329 330 340
335 335 335 334 337 341 340 337 337 339 339 339 340 338 335 335 338 339 337 336 337 334 334 336 335 334 335 336 338 339 338 338 336 337 339 336 336 335 334 333 334 335 333 331 328 327 326 328 323 323 323 322 323 323 326 325 325 326 328 328 332 340
333 332 333 335 335 335 333 331 334 335 336 334 333 333 333 333 336 336 337 338 335 334 334 332 333 333 332 334 338 340 340 340 338 336 336 336 336 335 333 331 330 331 327 328 329 328 326 326 325 325 323 324 324 324 325 325 325 325 327 328 332 340
332 333 331 335 333 332 331 334 337 342 335 340 334 329 329 332 334 335 337 337 338 336 335 334 333 333 333 333 336 340 340 340 339 338 335 332 334 333 331 328 327 324 326 327 328 327 326 327 325 325 326 324 324 323 324 324 325 325 326 328 330 338
332 332 331 333 332 331 333 334 335 334 335 342 330 330 331 332 333 334 336 338 339 336 336 335 334 333 333 334 335 338 339 339 339 338 334 331 331 332 330 328 327 326 324 325 324 325 326 326 325 325 325 324 325 324 324 324 324 325 326 327 328 334
331 332 331 331 331 331 330 332 333 334 335 338 330 331 330 330 330 333 333 335 337 337 337 336 335 333 332 333 334 336 337 337 337 336 334 332 330 330 330 328 326 325 326 324 324 325 326 325 326 326 325 324 324 326 325 324 324 325 326 327 328 331
329 332 328 329 328 329 328 329 331 332 333 332 333 334 331 329 330 331 332 332 334 337 337 336 335 334 332 332 333 333 334 334 334 334 335 333 331 330 329 329 327 325 324 324 324 324 325 324 324 326 327 327 326 324 325 325 325 326 326 327 328 329
322 325 327 327 330 328 326 328 328 327 328 330 332 330 330 329 333 330 332 331 332 335 337 334 334 333 332 332 333 333 332 332 333 333 335 334 333 332 330 329 328 327 326 324 324 324 324 324 324 325 327 328 327 326 324 324 325 325 326 327 327 328
316 319 323 324 325 323 323 326 325 324 325 330 327 326 328 330 329 329 329 330 333 334 333 333 334 335 334 331 332 332 332 332 333 333 334 335 335 333 333 331 331 331 329 326 325 326 324 324 324 325 326 328 327 327 325 325 324 325 325 326 327 328
314 316 318 320 321 320 319 319 321 321 327 323 322 324 327 325 329 329 329 330 333 335 332 330 333 334 333 330 329 331 332 332 332 332 332 333 333 332 332 332 331 330 332 328 326 327 323 322 323 325 326 328 327 326 325 325 324 325 325 326 327 327
318 317 319 319 319 317 316 318 314 314 318 319 319 321 321 320 321 325 330 332 332 333 333 331 330 331 330 330 330 331 333 333 333 332 331 332 332 331 331 332 331 330 328 327 326 327 324 322 322 324 326 326 327 326 325 325 325 325 325 326 326 327
313 314 315 316 313 314 312 311 314 321 314 318 317 317 317 318 320 322 326 328 333 333 332 330 330 329 329 329 332 333 334 333 333 332 331 332 332 331 330 331 331 331 328 328 327 328 325 323 322 323 325 325 326 326 324 324 324 325 326 326 326 326
311 313 313 312 310 310 311 310 310 311 311 312 312 314 315 317 322 323 320 321 326 331 330 330 332 331 328 328 330 331 329 331 332 332 333 332 331 330 331 332 330 331 330 328 328 328 326 323 322 322 324 325 325 326 325 325 324 325 327 326 325 326
311 312 311 311 311 310 312 313 312 315 320 314 313 315 318 321 321 319 320 321 323 326 329 333 334 334 331 330 330 329 330 330 333 331 331 332 332 331 330 331 330 330 330 330 329 327 326 325 324 323 322 323 325 325 325 325 325 326 326 326 326 325
311 310 310 311 313 312 312 312 311 312 313 313 314 315 317 318 317 319 320 319 321 324 325 325 329 333 332 332 330 329 329 331 331 329 330 331 332 332 331 330 329 329 331 332 330 328 327 327 328 325 323 322 323 324 325 326 325 325 324 326 327 327
309 309 310 311 313 311 312 311 310 310 313 313 312 317 314 314 314 318 320 318 318 320 322 322 321 323 326 328 328 328 326 327 326 329 328 329 329 332 331 328 327 328 329 330 331 331 329 328 327 325 322 323 322 323 323 324 324 324 324 324 326 327
309 309 312 311 310 310 308 307 307 307 309 309 312 312 312 312 313 314 315 317 318 318 318 320 319 319 321 326 323 325 324 322 324 327 327 327 329 330 332 331 331 329 328 326 327 331 331 329 326 323 322 322 322 322 322 322 322 323 324 324 323 325
309 310 311 311 312 310 306 308 307 308 306 309 310 309 309 310 312 315 314 314 315 314 314 315 319 318 318 317 318 320 320 323 324 324 326 328 329 330 330 329 328 326 328 327 326 328 329 327 322 320 318 318 318 319 320 321 320 321 323 324 324 323
309 311 310 312 311 310 307 308 307 305 310 308 306 308 307 312 315 311 311 312 312 310 311 311 314 319 317 316 316 317 319 320 322 324 322 322 322 322 325 327 326 325 323 326 326 329 328 327 322 321 320 318 314 315 317 316 319 320 321 321 322 323
310 311 311 313 315 309 309 307 308 308 307 306 306 313 308 308 309 310 311 310 311 310 311 311 313 316 316 315 314 315 314 316 318 320 319 319 320 321 322 323 327 327 325 322 323 323 327 326 325 321 317 318 316 311 311 313 315 317 319 320 320 322
311 311 311 315 312 310 310 309 311 310 309 308 308 306 307 309 308 313 311 309 310 310 311 311 312 314 316 312 312 313 315 315 316 316 317 316 316 318 319 322 324 326 327 324 322 323 325 326 326 326 321 316 312 311 311 312 313 314 317 318 319 320
310 311 311 311 310 310 309 309 309 308 305 304 305 304 304 306 307 308 307 307 309 309 310 310 310 312 316 315 313 313 313 315 314 316 316 314 315 315 316 318 321 323 323 324 325 325 324 325 326 326 325 324 319 314 314 317 314 310 315 318 319 320
311 311 311 310 310 311 307 309 310 308 307 306 306 305 302 303 307 306 307 308 307 308 309 310 310 310 313 313 312 312 313 313 315 315 315 314 314 314 315 317 318 318 319 322 324 323 323 323 325 325 325 325 324 323 323 318 313 312 310 312 316 319
311 313 311 310 309 309 308 308 307 307 308 306 307 307 304 304 304 309 305 307 308 308 308 309 309 309 311 313 313 311 311 312 313 315 315 314 313 313 314 315 316 316 316 318 320 320 320 322 319 321 325 323 322 324 324 324 322 318 315 313 315 317
311 311 310 310 309 308 310 309 308 308 308 308 307 306 306 309 306 308 304 307 308 308 306 308 310 310 310 313 314 310 309 310 311 313 315 312 312 312 312 312 312 313 313 314 316 318 318 318 319 318 320 322 324 324 325 325 324 323 317 314 315 315
310 310 310 310 309 307 309 310 308 308 308 307 307 305 306 306 305 305 305 305 306 307 307 308 307 308 309 310 310 310 309 309 310 312 312 309 309 309 310 310 310 311 311 311 313 314 315 315 316 318 318 318 318 319 321 323 323 322 321 319 315 316
310 310 310 310 308 307 308 309 309 309 308 307 305 305 305 304 304 304 305 304 304 305 307 307 307 308 308 308 309 311 309 309 310 313 310 308 307 308 308 308 308 308 309 309 310 311 312 313 313 313 314 315 315 317 316 316 318 321 320 318 317 317
310 309 309 310 308 307 309 309 309 309 308 307 306 306 305 306 305 305 305 305 304 305 306 308 306 307 307 308 308 306 307 306 308 306 306 307 307 307 307 307 307 307 307 307 308 310 309 309 310 311 311 313 314 316 317 318 319 320 320 319 319 318
310 309 309 309 308 307 308 309 309 310 309 308 306 306 305 305 305 305 304 304 304 305 305 307 306 306 306 307 307 305 305 305 305 307 306 307 306 306 306 306 306 305 305 306 307 307 307 306 307 309 309 311 313 313 314 317 320 320 321 321 319 316
311 310 309 309 308 307 308 309 309 310 309 309 306 306 305 306 305 306 305 306 306 307 306 307 306 306 306 305 306 307 306 304 305 306 306 305 305 305 305 305 305 305 305 305 305 305 305 305 306 306 308 308 310 311 312 314 316 318 319 319 318 317
311 310 309 309 308 307 308 309 309 309 309 310 307 307 306 307 306 306 305 306 306 305 306 307 306 307 307 305 305 304 304 303 304 304 304 303 305 303 303 304 306 305 305 305 304 305 303 304 306 305 305 306 308 309 310 312 313 315 317 318 317 317
312 310 309 309 308 308 308 309 309 308 307 309 310 308 306 307 306 306 307 306 306 305 306 306 305 305 305 305 304 305 305 303 304 304 304 303 302 303 302 303 302 301 301 307 303 302 303 302 302 303 304 304 304 306 308 309 311 312 313 314 315 316
312 311 309 309 309 308 308 309 309 309 307 307 308 307 306 306 306 305 307 306 306 305 304 304 306 305 305 303 304 304 303 303 302 302 302 303 303 302 302 301 301 301 300 301 303 302 302 301 302 303 302 303 303 305 305 306 308 308 309 310 312 314

ECMWFFLT2_sfc_thetae_012.txt.gz
Theta_e
342 344 346 346 347 346 346 349 348 348 346 343 340 346 346 344 347 347 346 344 343 343 343 344 344 344 345 345 345 346 346 346 346 346 346 345 345 344 345 344 343 342 342 341 340 341 340 340 341 339 338 337 340 333 331 331 332 334 333 336 337 333
340 342 344 345 346 346 346 346 343 344 345 342 343 343 341 341 343 342 345 343 342 344 340 339 341 346 343 345 344 346 345 344 345 346 345 345 344 344 344 344 343 342 341 340 339 331 335 339 339 337 337 335 331 330 331 331 332 332 333 335 335 336
337 340 342 343 344 346 344 344 343 340 344 341 338 342 339 340 338 341 341 341 342 341 339 341 341 342 343 345 344 344 343 342 345 345 345 345 344 344 344 343 343 342 340 338 330 327 327 327 332 335 332 328 328 329 330 330 331 332 333 334 333 338
336 337 339 341 343 343 343 344 343 342 339 339 341 338 338 336 337 340 338 340 340 338 338 339 346 347 346 343 343 343 343 343 343 341 345 344 344 343 343 343 342 341 338 333 327 327 327 325 325 324 327 327 328 328 329 329 330 331 331 336 332 338
334 335 337 338 341 341 341 342 343 343 342 341 341 340 335 336 334 336 338 340 338 337 336 336 337 339 339 337 336 337 337 340 338 338 343 339 339 340 340 337 336 336 333 332 329 325 328 328 327 326 327 326 327 327 328 330 329 330 331 335 334 338
334 333 334 338 338 341 342 340 340 342 342 342 342 340 337 336 335 337 338 339 337 334 335 335 333 333 336 337 338 335 336 337 336 337 339 337 337 336 335 335 336 335 333 333 332 329 330 329 326 325 326 326 326 328 328 328 329 330 330 332 335 338
330 331 333 338 339 339 337 338 340 340 340 338 340 339 337 335 334 335 336 335 334 334 335 335 333 332 335 337 338 338 338 337 337 336 337 338 337 337 336 335 335 333 332 332 332 331 326 327 326 327 326 326 326 327 327 328 328 329 330 331 333 338
328 330 330 335 336 335 335 336 338 341 339 341 338 335 335 334 332 334 336 336 337 335 335 334 334 333 334 334 338 339 340 339 338 338 337 338 336 336 335 334 333 331 331 331 331 330 328 327 326 327 328 326 327 326 326 327 328 328 329 330 332 337
329 331 330 331 333 334 334 333 332 334 335 341 330 331 332 333 334 336 337 336 336 333 334 335 334 334 334 332 335 339 340 339 338 338 336 335 336 335 333 332 331 330 328 327 326 327 327 327 326 326 327 327 326 326 325 326 327 327 328 329 330 334
330 330 329 330 331 332 331 329 329 333 335 337 328 330 332 331 332 335 336 335 335 334 335 335 334 335 334 334 333 335 338 338 337 337 335 334 334 334 332 330 328 327 327 325 326 326 328 326 326 328 327 327 326 327 327 325 326 327 328 329 330 332
329 333 328 329 328 329 330 329 331 331 332 331 334 334 331 330 330 331 334 337 337 337 336 336 335 334 335 335 333 330 335 338 337 336 335 334 332 332 331 330 328 328 326 325 326 326 327 326 325 327 328 328 327 327 327 327 326 326 327 329 329 331
327 328 329 328 330 327 328 330 333 330 328 331 334 332 329 329 333 329 332 335 337 337 337 336 335 334 334 334 334 331 334 336 336 336 336 334 331 331 331 331 330 328 327 326 326 325 325 325 325 325 326 328 328 327 327 327 326 326 327 328 328 330
324 326 326 327 327 325 326 330 330 329 329 332 332 330 329 328 328 330 332 330 335 337 337 336 335 334 333 331 332 332 334 335 334 335 335 334 333 331 331 330 329 329 328 326 325 326 326 325 324 325 326 327 328 328 328 327 327 326 326 328 328 329
322 324 325 324 323 322 321 323 326 323 328 324 323 326 329 327 331 331 331 332 333 335 335 334 334 332 332 331 330 330 333 333 332 331 332 334 333 332 331 330 329 329 330 328 326 327 326 325 325 325 326 326 328 328 328 327 327 327 327 327 328 329
322 321 324 321 320 318 316 320 318 316 319 319 319 320 320 322 325 327 329 329 331 332 332 332 331 330 332 333 330 330 331 331 330 331 331 330 331 332 332 331 331 330 330 329 328 328 326 325 325 325 326 327 327 327 327 327 327 326 326 327 328 328
318 319 318 318 313 314 313 311 314 322 317 317 318 317 317 319 323 328 329 330 332 333 334 333 331 331 329 331 330 330 330 330 330 330 330 330 331 332 332 332 331 331 329 328 328 328 327 326 325 324 325 326 327 328 327 326 326 326 327 327 327 328
316 317 315 312 310 309 309 309 310 312 314 314 315 315 316 317 321 322 323 326 330 333 333 332 333 333 330 328 329 328 329 330 331 331 330 330 330 331 330 330 331 331 331 328 329 328 327 324 323 323 324 325 326 327 327 327 326 327 327 326 326 327
315 315 313 311 309 310 310 311 311 314 318 313 312 314 316 319 319 318 320 321 324 331 333 333 334 333 330 330 329 329 329 330 331 331 331 331 332 333 331 330 330 330 331 330 329 328 327 327 328 328 326 324 325 326 326 327 327 328 327 327 326 327
313 310 310 310 312 310 310 311 310 312 313 313 314 315 316 317 316 318 318 319 323 326 330 331 333 333 331 330 329 328 328 330 330 330 330 330 332 333 332 329 328 328 330 330 329 329 328 326 327 327 328 327 324 325 327 327 327 327 327 327 327 328
310 309 310 311 311 310 310 312 312 311 313 313 313 317 313 313 315 317 319 319 320 321 324 325 326 328 328 328 327 327 324 326 328 329 329 329 329 330 329 327 328 328 328 329 331 331 329 328 327 326 326 326 324 324 324 326 326 326 327 327 327 329
308 310 311 310 309 308 308 306 307 308 308 308 312 312 312 311 313 315 316 318 319 318 318 320 320 320 321 326 323 323 322 321 325 328 327 327 328 328 330 329 330 329 328 325 327 330 330 329 326 323 323 323 323 324 324 325 325 326 326 327 327 328
308 310 310 310 311 308 305 307 307 308 305 308 310 310 310 311 313 315 314 313 314 313 315 318 321 319 318 318 319 320 322 323 324 326 327 328 329 329 329 329 329 327 329 327 326 327 327 328 323 320 319 318 321 322 323 323 323 323 325 326 326 326
308 310 309 312 310 308 305 307 305 305 310 307 305 308 308 313 313 311 310 311 312 311 313 315 318 320 317 316 316 317 318 320 321 324 322 323 323 324 325 327 326 324 323 326 326 327 327 326 321 322 320 319 314 314 318 320 321 322 323 324 326 325
308 309 310 313 313 307 308 306 307 307 305 305 306 313 308 308 309 310 310 309 311 309 312 313 315 317 316 315 315 316 316 317 317 320 320 320 320 322 324 325 327 326 325 323 324 324 327 326 324 321 316 316 316 313 312 316 316 320 321 322 323 324
309 309 310 315 311 310 311 309 309 307 308 308 308 307 308 307 307 315 311 309 309 310 311 313 313 315 317 313 313 314 316 316 316 316 317 317 317 317 319 322 324 326 326 325 324 324 325 326 325 327 321 315 313 312 313 315 318 319 320 320 321 322
308 309 310 311 309 310 311 309 308 305 303 303 303 304 304 307 307 307 307 308 308 309 310 310 311 314 317 315 313 313 314 315 315 315 316 315 315 316 316 316 318 321 322 324 325 323 322 325 328 326 325 324 320 315 315 318 318 314 321 321 321 322
309 309 310 310 308 311 308 309 309 307 304 304 304 303 302 303 307 305 306 307 307 308 309 310 311 312 313 314 312 313 314 314 314 315 316 314 314 314 315 315 317 316 318 320 322 318 319 320 325 325 325 326 325 324 324 319 315 316 314 319 322 322
309 311 310 310 308 309 308 308 308 305 305 303 304 305 304 303 304 308 306 307 308 307 308 310 310 311 313 315 313 312 312 314 314 314 315 312 312 312 313 314 315 314 315 316 318 318 317 319 317 317 321 323 324 325 324 324 322 318 316 314 317 323
309 311 309 309 309 307 310 308 309 307 305 306 304 305 307 309 307 308 305 306 307 306 307 308 309 311 312 314 315 311 311 311 311 312 313 311 311 311 311 311 311 312 312 313 315 316 315 315 317 316 317 317 320 320 322 325 325 323 318 314 315 317
308 310 310 309 309 307 307 310 307 306 306 305 307 304 305 305 304 304 306 305 306 306 307 308 308 310 311 311 311 311 310 310 310 312 312 308 309 309 309 309 309 310 311 311 312 313 313 313 314 315 316 316 315 315 316 319 321 320 320 320 315 316
309 310 310 309 308 307 306 308 307 306 306 305 304 304 304 303 303 303 305 305 305 305 306 306 309 308 309 310 311 313 310 310 311 313 310 308 308 308 308 308 308 308 309 309 310 310 310 311 312 312 312 313 313 314 313 313 314 316 316 315 315 316
308 308 309 309 307 306 306 307 306 307 306 306 305 305 305 305 305 305 304 305 303 305 306 307 306 308 308 309 310 309 311 308 308 307 307 308 308 307 307 307 307 308 308 308 309 310 309 309 309 309 310 312 312 313 313 313 314 316 315 316 315 314
307 308 308 308 307 306 306 307 307 306 307 307 306 306 305 305 305 305 304 304 304 305 305 308 306 307 307 307 308 306 306 307 307 308 307 307 306 306 306 306 306 306 307 307 307 307 307 307 308 308 308 310 311 312 311 313 314 314 315 316 316 314
307 308 308 307 307 305 306 307 307 307 307 308 306 306 305 305 305 306 305 306 306 307 307 308 307 307 307 308 308 309 307 306 307 308 307 306 306 306 306 306 305 305 306 306 306 306 306 307 307 307 308 308 309 310 310 311 312 313 312 312 311 311
307 308 308 307 307 305 306 307 307 307 307 307 306 306 305 306 306 305 304 306 306 306 307 307 308 308 308 307 307 305 306 306 306 305 305 306 305 305 305 306 306 305 307 305 305 306 305 305 305 305 306 307 308 308 309 310 311 311 311 311 310 310
307 308 308 308 307 306 306 306 306 307 307 308 309 307 306 307 306 306 306 306 306 306 307 307 306 307 307 307 306 307 307 305 305 305 306 304 304 304 304 304 303 303 304 308 304 304 304 304 304 304 305 305 305 306 307 308 309 309 309 310 311 311
307 307 308 308 308 307 306 305 306 307 307 307 307 305 305 305 305 305 306 306 306 307 306 306 307 307 307 305 305 306 305 304 304 304 304 304 304 303 303 303 302 302 303 303 306 303 303 303 303 304 304 304 304 305 305 307 307 307 308 308 309 310

ECMWFFLT2_sfc_thetae_018.txt.gz
Theta_e
353 353 351 351 349 346 344 342 341 342 342 342 345 344 344 344 340 341 345 344 346 349 351 349 349 349 345 349 346 346 347 346 345 345 344 344 344 345 345 343 342 341 341 340 340 339 340 339 339 339 341 342 341 341 343 341 341 339 340 338 340 339
349 352 349 346 346 349 349 345 346 348 347 345 344 343 346 350 345 347 343 349 350 347 348 348 349 343 346 347 348 347 347 347 346 344 345 344 343 344 344 342 342 341 340 339 338 335 339 339 336 338 340 342 342 343 344 343 343 339 339 340 341 339
343 348 352 349 346 349 350 350 348 346 347 344 345 347 349 350 345 343 345 348 347 349 347 347 346 346 343 344 349 346 347 347 346 346 344 345 343 343 343 342 341 340 340 339 336 335 335 335 339 334 340 342 342 342 343 343 343 340 339 340 341 339
342 344 347 349 350 348 348 349 350 350 348 349 347 345 347 348 347 345 342 345 345 345 346 349 342 341 343 347 347 345 346 346 345 345 345 345 343 342 342 342 340 338 339 336 335 334 334 336 336 340 341 340 340 340 342 343 339 340 339 338 338 339
341 343 342 347 350 349 349 346 346 347 344 347 347 347 348 349 348 347 341 346 345 345 347 347 346 342 345 344 345 348 347 345 345 345 344 341 337 343 344 339 340 336 336 336 335 336 336 336 339 338 338 338 339 340 341 342 341 339 340 341 341 340
341 340 341 342 343 348 349 346 346 346 346 346 344 345 347 342 347 348 344 345 346 346 347 345 346 347 346 347 343 344 344 343 343 343 340 339 340 338 337 340 342 338 339 337 336 336 336 336 335 336 336 338 339 340 339 339 342 339 341 341 342 340
340 342 342 340 342 342 346 348 347 346 345 344 346 344 341 343 345 347 348 348 346 346 346 344 343 345 345 347 345 343 342 343 344 343 344 339 342 338 336 335 339 338 338 337 335 335 334 335 336 333 336 336 337 337 339 340 340 339 340 340 342 339
341 341 343 340 341 341 341 342 348 346 346 346 345 345 344 345 346 347 347 347 349 346 344 343 343 344 347 348 345 344 343 341 341 343 345 344 338 336 335 335 336 335 335 335 334 334 333 333 335 336 335 335 336 337 339 338 340 341 341 342 342 339
340 340 342 341 339 340 339 341 342 343 343 346 347 346 347 346 345 345 347 346 343 346 344 343 343 344 345 346 347 345 344 343 343 342 344 341 337 335 335 334 335 335 335 335 334 334 333 333 334 336 334 334 335 335 337 338 339 338 339 339 341 341
338 338 340 340 341 339 340 340 341 342 342 343 342 343 346 344 347 345 345 345 345 346 347 344 344 345 345 345 347 348 347 345 344 344 343 340 336 335 334 334 335 335 334 333 332 334 333 332 331 334 333 333 334 335 337 337 336 336 337 339 340 343
336 342 337 336 340 340 341 339 339 342 342 343 344 342 342 341 341 347 346 346 345 342 345 346 346 345 346 345 343 344 345 345 345 345 343 340 340 338 338 335 334 334 331 332 331 333 332 332 332 330 331 331 332 335 335 337 335 335 335 337 338 340
339 344 343 334 340 339 339 338 341 341 342 345 348 344 344 344 342 343 345 345 344 346 337 345 339 340 341 342 343 343 342 343 344 343 341 339 338 338 337 333 332 335 334 333 333 334 335 333 332 330 331 329 332 333 333 335 334 335 334 336 337 339
340 344 342 338 337 338 339 338 339 341 342 346 344 343 342 344 346 345 343 342 341 339 335 334 337 340 342 343 343 341 341 340 341 344 341 339 339 340 338 335 334 334 333 334 334 334 332 334 333 332 333 331 332 331 332 333 334 335 334 335 336 336
343 340 342 337 340 335 339 339 340 339 342 342 343 342 342 343 342 340 341 342 339 337 336 337 340 342 341 341 340 340 338 338 340 344 343 340 337 336 337 336 332 332 332 332 331 333 332 331 332 333 334 333 334 334 333 331 333 334 335 335 335 337
344 341 341 339 337 337 339 337 336 336 338 339 338 336 340 344 343 342 338 337 336 336 338 340 340 341 340 339 338 338 338 338 340 342 341 339 338 336 338 337 333 331 332 330 331 332 332 331 331 333 335 337 333 332 334 333 334 333 333 336 337 336
342 341 340 340 340 340 339 339 336 335 337 338 334 334 333 336 339 341 341 340 340 339 341 341 341 340 340 339 337 338 339 341 341 340 340 340 338 336 335 338 337 334 332 330 331 331 332 333 335 334 335 337 335 334 333 333 333 333 333 335 334 335
341 340 339 340 340 340 339 337 336 336 335 334 332 332 332 335 335 336 337 339 340 340 338 340 341 339 339 338 337 338 340 341 341 339 339 340 337 337 337 335 337 335 336 334 331 330 333 335 335 335 336 336 336 335 333 333 333 333 331 333 334 333
342 341 341 341 341 338 336 336 333 333 333 331 332 331 332 332 333 333 334 333 335 339 341 340 339 338 338 338 338 338 339 340 340 339 338 339 338 340 342 340 339 341 339 337 336 335 336 336 334 333 336 336 339 337 334 333 334 332 331 331 333 333
341 340 339 341 340 337 336 334 332 332 331 330 332 332 332 332 332 333 332 335 335 335 335 338 339 340 339 336 336 337 339 340 340 339 339 338 337 338 338 339 339 339 338 339 339 338 337 336 335 335 333 335 336 336 338 337 336 334 333 334 333 334
341 340 340 338 333 330 330 327 326 327 326 328 330 330 332 331 332 330 332 332 333 334 333 335 334 336 336 336 335 335 338 338 337 338 337 336 336 336 330 333 334 335 335 335 336 337 337 335 334 334 333 334 334 337 336 336 336 335 336 336 337 336
339 340 335 331 329 328 326 324 324 324 324 325 327 329 330 331 331 332 331 329 331 331 332 332 332 332 332 333 334 334 334 334 337 337 335 331 337 335 332 331 332 333 334 333 335 337 337 336 333 331 332 333 334 335 337 336 335 335 333 334 336 337
338 336 333 332 329 329 326 323 323 324 322 322 322 324 326 329 330 331 332 331 331 331 331 331 331 331 331 330 332 331 333 333 333 335 336 336 335 335 336 334 333 332 333 333 333 335 334 332 327 325 327 324 331 332 331 334 334 334 335 335 336 337
335 334 333 333 330 327 327 328 326 323 323 323 328 329 327 328 330 328 329 328 328 328 329 329 330 330 329 328 328 330 331 332 333 334 335 335 335 335 335 333 333 331 329 333 334 335 334 332 328 330 331 327 325 323 330 330 331 332 333 336 336 336
335 334 333 333 329 330 330 330 332 330 329 326 326 329 330 330 328 326 324 326 327 327 327 328 328 327 327 329 329 329 330 330 331 332 331 331 332 334 335 334 335 334 333 328 329 331 334 335 331 329 322 324 324 323 319 323 327 332 333 333 332 334
334 333 333 332 331 332 330 328 329 330 329 328 327 326 325 323 325 324 325 326 325 327 328 327 327 326 324 327 327 327 328 330 329 329 329 328 328 328 332 334 334 333 332 331 327 330 331 333 332 333 330 321 320 317 320 323 326 328 330 331 329 330
333 333 331 332 332 328 325 324 322 320 319 319 319 320 318 320 321 322 322 325 326 327 327 327 326 326 326 325 326 327 327 327 329 328 327 327 326 326 327 328 330 330 330 331 328 325 328 331 331 331 330 330 325 319 323 326 323 318 330 328 332 331
332 331 332 331 331 327 325 324 324 321 319 319 317 319 323 323 323 322 325 325 325 328 327 327 327 327 326 326 325 325 327 326 326 327 327 326 325 325 324 325 328 327 327 328 328 326 326 327 331 331 331 333 330 329 329 324 321 321 316 328 327 331
331 330 332 331 330 327 324 324 323 321 320 318 319 320 323 325 326 325 324 324 325 325 327 327 326 326 326 326 326 324 326 326 325 325 324 324 323 325 326 326 328 327 327 327 326 323 323 328 324 323 327 327 327 328 328 327 326 322 321 317 321 328
330 330 331 331 329 327 325 324 323 322 319 319 322 321 321 323 323 325 324 323 324 324 326 327 326 326 326 325 325 325 325 323 322 321 320 321 323 324 325 325 325 326 325 325 324 324 322 321 321 320 322 323 323 323 324 327 327 325 320 318 317 319
329 329 330 331 328 327 326 326 324 322 320 320 320 320 321 321 323 324 323 324 323 323 324 325 326 325 324 322 320 319 318 318 319 317 317 317 319 320 321 321 323 323 324 324 325 324 322 321 321 321 320 321 319 318 320 320 322 321 322 323 315 315
329 328 330 330 328 327 326 327 324 324 322 321 320 320 320 322 322 323 322 323 322 322 324 323 323 324 322 319 319 319 319 318 319 318 317 317 318 317 319 320 320 321 322 322 321 321 321 321 320 320 321 319 318 318 317 316 317 317 318 317 315 315
327 327 329 329 328 327 326 327 326 326 323 323 323 320 321 321 322 322 323 321 322 321 323 323 323 320 320 320 320 320 320 319 318 318 318 318 318 318 319 319 319 319 319 319 320 320 320 319 319 319 319 319 318 318 318 316 316 317 317 317 316 314
325 327 328 329 327 327 327 327 325 327 326 325 324 321 320 321 322 321 322 321 321 319 321 321 321 320 320 321 321 321 321 318 318 318 318 317 318 318 318 317 318 319 319 318 318 319 317 318 318 318 316 317 316 317 317 317 317 317 317 317 316 313
325 327 328 328 327 327 327 328 327 328 328 326 326 324 321 322 323 321 322 322 321 320 320 322 321 321 320 320 320 322 322 320 319 318 318 318 318 318 319 316 317 317 317 318 318 318 317 317 317 316 317 314 315 314 315 316 316 315 315 314 313 313
324 326 326 326 327 326 326 327 328 328 328 329 327 324 322 322 324 322 322 323 321 321 320 322 322 323 321 320 321 322 322 320 319 319 318 318 317 318 318 317 317 318 318 318 317 317 317 317 315 314 315 315 314 315 313 313 314 313 312 314 313 313
324 326 325 325 326 326 326 327 328 329 329 329 327 326 324 323 324 324 324 323 322 322 322 322 324 324 322 322 322 322 321 321 320 319 319 318 318 317 317 316 316 317 317 317 317 317 316 316 316 315 315 314 314 312 314 313 313 314 312 313 313 313
323 325 325 325 325 326 327 328 328 329 329 329 329 327 326 327 327 327 326 324 322 323 323 324 324 326 323 323 323 322 322 321 321 319 319 318 317 317 317 317 317 316 317 317 317 316 316 315 315 315 314 314 313 314 313 315 313 314 314 314 313 313

ECMWFFLT2_sfc_thetae_021.txt.gz
Theta_e
348 349 349 350 351 349 347 345 345 346 347 347 347 347 346 344 342 344 345 345 343 347 350 350 348 346 346 348 345 346 344 343 344 345 345 344 345 344 344 344 342 342 341 339 339 340 340 338 339 338 341 342 341 342 341 341 338 338 338 332 340 337
348 349 349 350 351 350 348 346 348 348 348 348 346 346 348 350 345 349 345 348 347 346 346 346 349 346 348 346 346 346 344 344 344 344 344 344 344 344 344 343 342 341 340 339 338 335 337 339 339 338 340 342 342 342 343 342 340 337 337 337 339 338
347 349 351 350 351 350 348 348 346 347 348 346 347 346 345 349 348 346 344 347 346 349 345 345 348 346 346 343 347 346 345 344 345 344 344 344 344 344 343 342 341 340 339 339 334 333 335 335 335 340 342 341 342 342 342 342 337 338 336 339 337 339
347 347 349 348 345 348 351 348 348 346 348 347 348 345 348 347 346 343 346 343 347 344 343 346 343 343 345 345 344 344 344 345 344 345 344 344 344 343 342 341 340 340 340 334 334 333 334 333 334 336 338 340 340 340 342 342 338 338 338 336 336 339
347 347 347 349 351 347 349 348 348 348 346 346 346 348 349 347 347 346 345 343 341 344 342 343 342 343 344 345 344 346 344 343 343 342 344 340 342 344 342 338 338 336 335 335 334 335 334 333 335 336 337 338 338 341 342 342 339 338 338 338 339 338
339 345 344 347 348 347 346 349 345 347 348 348 347 347 346 347 345 344 344 345 342 344 344 341 341 343 344 345 343 342 339 340 339 339 340 336 337 344 343 338 337 335 335 335 336 337 335 335 334 335 334 336 338 339 340 340 340 339 340 340 339 340
338 339 341 343 344 347 346 347 346 344 345 344 345 345 346 344 345 345 345 344 344 343 341 340 339 338 340 342 342 342 341 340 341 340 338 334 338 338 337 338 339 337 335 335 334 336 336 335 336 332 333 333 337 336 339 339 340 338 340 340 340 340
338 339 340 338 338 338 345 343 343 344 346 344 345 343 344 345 347 345 347 343 344 342 340 342 338 337 337 339 339 340 341 338 339 341 341 338 338 341 339 335 337 339 335 335 333 334 335 334 335 335 332 333 335 336 338 339 341 341 340 341 338 341
336 337 338 339 338 340 340 341 343 343 341 343 342 341 342 345 347 346 342 344 343 344 341 339 337 337 340 337 342 341 339 342 340 341 342 341 339 338 336 335 335 335 336 335 334 334 334 334 336 335 334 332 333 333 335 338 340 340 339 339 338 339
334 335 336 337 339 338 339 338 340 342 346 345 346 343 344 342 343 342 343 346 345 343 341 339 340 339 339 340 342 341 340 340 343 342 345 340 340 336 334 334 335 335 333 333 333 333 332 334 333 334 333 333 333 333 336 335 336 336 337 338 340 339
333 338 332 332 335 338 338 336 336 339 341 342 345 345 344 344 343 343 343 344 344 345 345 344 344 342 342 338 338 343 342 343 341 342 343 340 338 336 337 335 336 334 334 332 330 331 331 331 332 332 332 331 331 334 334 335 335 334 334 336 338 340
335 338 337 334 334 335 336 334 337 337 339 343 347 345 342 343 342 340 341 342 343 342 344 344 344 343 342 340 341 335 340 340 342 345 342 343 343 338 338 335 334 335 333 334 330 331 333 330 330 329 331 329 330 332 333 334 334 335 335 335 336 339
335 335 334 335 335 335 336 335 336 337 344 346 345 345 343 343 339 342 341 342 341 342 342 342 344 344 343 341 342 341 340 340 341 344 343 342 339 338 338 335 334 334 332 331 332 331 330 332 331 331 330 328 330 329 331 332 334 335 333 333 334 336
335 331 337 336 334 334 335 336 337 338 343 345 344 342 342 345 343 343 341 341 343 341 342 345 344 345 343 341 341 341 341 340 341 343 345 343 338 336 337 337 332 330 329 329 329 331 328 328 329 330 331 331 331 332 332 331 332 332 334 334 334 335
339 336 336 336 330 336 336 333 333 335 337 338 338 339 344 341 339 342 343 343 344 343 343 343 344 344 343 341 339 340 341 341 342 342 342 342 338 336 338 338 332 329 330 329 329 329 329 329 329 328 331 333 331 331 333 331 331 330 332 335 336 335
338 339 338 338 340 340 336 336 334 332 336 336 332 334 335 338 340 340 340 342 343 342 342 342 342 344 343 343 339 339 341 342 341 341 340 342 340 336 335 337 336 332 330 327 329 330 331 329 330 330 332 334 334 334 332 332 332 330 332 334 333 335
336 339 340 340 340 340 337 335 335 335 331 332 330 330 333 335 336 341 341 339 342 343 342 342 344 343 343 343 340 340 340 342 341 340 339 341 338 336 336 334 339 336 335 330 329 329 329 332 333 333 334 335 334 334 334 333 333 333 331 332 332 332
338 340 340 339 340 337 336 334 332 332 334 329 331 331 332 332 333 332 334 335 338 341 342 342 342 342 342 343 341 341 340 341 340 339 341 338 335 336 336 335 335 336 335 335 336 334 333 335 333 333 333 334 335 337 334 334 332 334 331 330 331 332
338 340 340 340 340 338 336 335 329 328 326 328 331 332 331 330 331 333 333 334 335 336 341 341 341 341 342 340 340 341 340 341 341 337 333 330 333 334 335 337 334 339 341 340 335 334 335 334 331 332 331 334 332 333 336 336 334 333 330 330 330 331
339 338 339 339 336 331 331 328 326 328 327 329 330 328 331 329 331 330 332 332 333 334 332 335 335 335 336 336 338 340 340 340 339 336 332 332 331 333 333 333 333 332 338 336 336 333 334 333 331 334 335 335 335 335 336 335 334 333 333 333 332 333
340 338 335 333 330 328 327 326 326 326 324 325 326 328 329 330 330 329 331 330 331 331 332 332 331 331 332 333 334 335 338 340 339 333 332 328 332 332 334 335 335 333 336 335 334 337 337 334 334 331 334 334 336 336 335 335 334 333 333 334 335 333
338 336 334 333 330 330 328 325 323 325 324 322 321 324 324 328 328 330 330 330 331 330 330 330 328 329 331 330 331 331 332 332 335 333 333 331 331 332 333 333 335 332 335 333 333 335 335 334 329 327 325 326 330 335 334 333 332 331 336 332 337 335
337 334 333 333 331 328 327 328 327 324 324 324 327 329 327 327 329 325 327 327 327 329 330 328 328 328 328 329 328 329 331 332 332 334 333 332 331 331 332 332 332 329 330 331 331 333 335 334 329 330 329 324 323 321 329 331 332 331 332 333 335 334
336 333 332 333 331 331 330 330 329 328 326 326 326 329 328 328 326 325 325 327 327 329 329 329 328 327 327 328 329 329 329 330 331 332 333 331 331 332 333 332 331 330 328 324 326 328 330 332 331 329 322 322 322 320 317 320 326 332 333 331 332 333
335 332 333 331 332 331 329 330 329 330 330 326 325 324 325 323 325 325 326 327 327 329 329 328 328 327 326 326 327 327 328 329 329 330 329 328 331 330 331 330 330 331 329 326 325 327 329 330 329 332 329 323 319 317 318 323 326 327 332 331 330 332
334 333 332 331 333 331 325 325 323 320 318 319 319 320 320 320 320 323 321 327 328 327 327 327 327 327 326 325 326 326 327 326 326 327 326 327 327 327 328 330 331 332 332 331 328 326 326 330 330 331 330 331 326 321 321 323 322 316 330 331 331 331
334 332 332 331 333 327 324 324 322 321 319 320 319 321 323 324 324 322 326 326 325 328 327 328 328 327 326 326 326 325 325 325 325 325 325 326 324 326 323 326 329 330 330 329 330 327 324 326 330 329 328 331 330 330 330 324 318 319 317 327 332 330
333 332 334 331 331 328 326 324 323 323 322 320 320 322 323 325 325 324 323 325 325 325 327 327 327 326 327 326 326 325 325 325 323 324 323 323 324 325 325 325 327 328 328 328 328 325 323 326 326 323 329 328 329 329 329 328 327 324 319 316 323 331
333 333 332 332 330 327 326 325 324 323 320 322 323 322 323 323 322 324 324 324 325 324 326 327 327 327 326 326 326 326 325 324 323 322 321 321 323 324 325 326 326 326 325 326 326 325 326 323 323 323 323 325 324 325 325 327 327 326 320 315 317 319
332 332 333 331 330 327 327 326 323 324 321 321 322 320 322 321 323 324 323 324 324 324 324 325 327 325 325 322 321 321 320 319 320 318 318 318 318 319 321 322 323 324 324 324 325 325 324 322 322 323 322 322 320 320 321 321 323 322 320 321 316 315
332 331 333 331 329 328 327 326 324 324 322 323 322 321 321 321 322 323 322 322 322 323 324 324 324 324 321 320 320 319 319 318 319 320 319 318 319 318 320 321 322 323 324 324 322 322 322 321 321 320 321 320 319 319 319 317 318 318 318 315 315 315
331 331 332 331 328 328 326 326 326 325 323 324 323 321 323 321 321 323 322 321 322 322 323 323 323 321 321 321 321 319 319 320 319 319 319 319 320 320 321 321 321 322 321 322 323 322 322 320 321 319 318 318 318 318 319 317 317 317 315 315 316 313
329 331 331 331 327 328 327 326 325 325 324 324 323 321 324 322 323 322 322 321 321 321 322 321 321 321 321 322 322 321 320 319 319 320 320 319 320 320 320 320 321 321 322 321 321 322 320 320 321 320 317 316 317 317 318 318 316 316 317 317 315 312
329 331 332 331 327 327 327 326 327 326 325 324 322 323 323 323 323 323 323 322 321 321 321 322 321 321 321 322 321 323 323 321 320 319 319 320 320 320 321 318 319 320 319 320 321 320 320 319 318 318 319 317 316 315 316 316 316 315 315 314 312 313
329 329 330 330 328 327 326 327 327 327 325 325 323 322 322 323 324 322 323 323 322 322 321 323 322 323 321 322 323 323 323 321 319 320 319 320 320 320 320 318 319 321 320 320 320 320 319 319 318 316 317 317 317 316 314 315 314 316 314 313 312 313
328 328 330 330 328 327 326 327 328 326 327 326 325 324 321 322 324 324 325 324 322 323 323 323 325 324 322 322 323 323 321 321 320 319 320 319 319 318 319 318 318 319 318 319 318 318 318 318 317 317 317 317 318 315 315 314 315 315 314 315 313 312
327 329 329 330 329 327 327 327 327 327 327 328 328 326 323 323 325 325 325 325 323 322 325 325 325 325 322 322 323 323 321 321 321 320 320 319 319 319 318 318 318 318 318 319 319 318 319 317 317 317 315 316 315 315 313 315 317 315 316 315 315 314

ECMWFFLT2_sfc_thetae_024.txt.gz
Theta_e
347 347 347 347 348 347 347 349 349 349 349 349 349 348 348 347 347 346 346 345 343 345 344 342 343 342 344 344 344 345 346 346 346 345 345 345 345 345 345 344 344 342 341 340 339 339 340 339 342 341 342 343 343 340 339 339 337 336 336 336 335 335
346 346 347 348 347 347 347 347 347 346 347 347 347 347 347 346 346 345 344 345 343 344 342 341 342 342 344 343 342 346 345 346 345 345 345 345 344 344 344 343 343 342 341 339 341 337 338 339 340 339 341 342 341 338 339 340 339 337 336 335 335 337
346 346 347 346 347 347 344 347 345 345 346 347 347 347 346 344 343 342 343 342 345 340 339 340 340 339 340 342 343 345 345 345 345 345 345 345 344 345 344 344 342 341 340 341 336 333 334 334 334 340 340 340 338 338 340 340 337 335 334 334 334 339
346 346 346 346 346 347 346 346 345 345 344 345 346 344 344 344 342 342 341 344 343 339 341 338 343 344 342 343 343 345 345 345 345 345 345 344 344 344 344 343 342 341 339 335 331 331 331 333 331 334 336 336 336 338 341 340 338 335 334 337 336 341
346 346 346 346 345 345 347 346 345 345 343 346 344 344 344 342 339 339 339 342 342 342 340 341 341 342 340 341 342 343 343 343 344 343 345 342 342 341 342 340 339 338 333 332 330 330 331 331 333 332 333 335 336 338 342 341 340 335 334 335 337 340
346 346 345 346 345 346 346 345 344 344 344 344 343 344 344 339 339 338 340 340 341 341 341 339 340 339 340 343 341 341 342 341 340 340 343 340 340 341 340 337 335 333 331 331 331 332 334 336 331 333 333 335 337 338 338 338 339 336 336 336 338 340
343 344 344 345 345 345 346 343 346 343 341 342 344 342 343 338 339 338 340 340 342 340 340 340 339 339 339 342 339 341 340 339 339 341 340 337 336 339 340 337 336 334 332 332 331 332 337 333 333 329 330 332 333 335 338 337 340 336 335 336 339 340
340 343 343 343 344 344 345 343 343 343 341 344 341 340 339 341 338 339 339 341 341 340 340 339 339 339 339 339 340 342 342 342 339 340 342 341 339 340 342 341 338 341 334 331 330 332 333 331 335 333 333 332 334 334 336 337 339 336 335 335 338 340
338 341 341 341 342 343 344 343 343 343 342 340 339 339 340 339 338 337 338 341 342 341 339 340 339 338 339 337 339 341 341 341 340 339 340 340 339 340 336 334 334 334 334 332 331 334 332 331 336 335 331 332 332 332 337 338 340 336 335 335 337 340
332 332 338 339 341 343 343 341 341 341 342 343 342 340 339 341 341 339 337 342 341 341 342 341 339 340 340 338 339 339 339 338 337 337 337 336 341 336 337 337 334 332 331 331 330 331 332 331 331 331 330 329 330 332 335 335 338 338 336 335 336 339
332 340 331 332 335 339 342 340 338 339 340 340 341 339 340 339 340 340 341 341 341 341 340 340 341 340 339 339 337 336 336 337 339 339 339 338 340 335 337 334 332 333 331 329 329 330 332 329 330 329 332 329 330 329 332 332 333 334 334 335 335 337
334 342 345 330 337 336 338 333 338 339 338 339 338 338 337 338 338 337 338 340 341 341 341 342 340 337 338 337 335 334 334 335 337 337 339 338 338 335 338 334 334 333 334 335 333 331 330 329 330 328 329 329 328 329 329 331 331 332 332 336 335 335
332 342 338 336 334 336 342 335 336 338 336 336 336 335 335 337 339 340 342 340 342 342 342 339 337 335 336 336 336 334 334 337 337 339 339 338 338 338 338 335 334 333 333 334 333 330 329 331 329 330 328 328 328 327 327 328 331 333 331 336 336 334
332 332 338 334 347 332 336 331 337 340 341 337 337 336 337 336 338 340 344 343 344 342 341 342 334 335 336 337 337 335 336 338 340 341 340 337 337 337 336 336 334 330 334 332 329 330 329 327 328 327 331 330 329 327 330 327 329 330 334 333 335 336
339 338 335 336 336 335 337 334 333 335 338 340 338 335 335 335 338 342 343 342 342 342 343 343 339 337 335 336 335 337 339 340 340 338 335 335 335 333 335 336 335 332 332 329 327 331 327 326 327 325 329 334 329 329 331 331 330 329 330 331 337 335
338 339 339 339 339 340 338 337 335 335 336 342 337 338 339 338 338 340 340 342 341 340 341 339 337 338 335 336 336 338 336 337 334 336 335 334 332 332 332 338 340 336 332 326 326 327 329 328 327 326 330 331 331 332 330 330 329 328 327 332 333 335
338 339 341 341 339 340 340 337 334 338 333 339 337 338 333 336 337 339 339 341 342 343 339 341 338 338 339 337 336 337 338 334 333 334 333 332 332 335 336 337 338 338 336 333 328 329 329 332 332 332 331 330 331 331 332 332 332 331 331 331 332 330
340 340 341 341 339 341 334 335 334 328 335 330 333 331 334 332 335 335 336 338 339 342 342 338 339 337 336 336 338 333 334 330 333 331 333 333 334 337 334 338 337 336 335 334 332 330 330 332 333 332 331 334 332 333 332 332 333 334 331 328 330 331
339 340 340 340 341 336 338 328 333 331 331 332 329 333 334 330 331 334 334 338 337 339 339 338 339 340 338 338 337 334 331 333 334 332 332 332 333 334 335 336 333 332 332 330 332 332 331 331 332 333 333 332 333 332 334 333 333 333 332 332 331 329
339 340 340 340 335 331 331 333 328 334 330 329 328 330 335 331 334 333 334 335 339 345 336 341 340 338 338 338 337 334 332 333 334 334 332 331 331 333 332 333 332 330 328 328 333 331 331 329 331 331 332 333 334 334 333 336 333 332 332 332 332 331
338 339 337 333 332 330 331 330 337 329 326 333 327 330 329 329 328 328 329 329 331 331 331 330 331 332 338 340 336 333 330 330 333 333 332 333 334 334 333 335 334 333 329 327 328 332 331 330 329 327 329 331 333 335 328 330 332 333 333 333 332 332
336 336 336 336 338 337 335 325 330 327 326 327 321 325 325 327 328 330 331 331 333 335 334 332 333 333 333 331 337 334 332 332 334 334 333 332 332 333 333 333 334 331 332 329 326 328 330 329 324 323 322 323 327 332 331 330 331 330 338 333 335 332
335 335 336 337 335 332 331 333 336 332 333 324 326 328 326 327 328 324 334 329 333 335 336 329 330 330 334 330 332 334 331 335 334 335 333 331 331 331 332 333 332 328 326 329 327 329 328 329 323 326 326 323 320 320 324 330 333 335 334 334 336 334
335 335 334 335 333 333 333 333 332 330 330 328 324 327 328 330 328 326 325 329 333 334 329 328 327 326 325 330 330 328 332 331 333 336 334 331 331 329 331 331 330 328 327 322 326 326 329 327 327 324 318 319 319 319 315 320 324 329 331 332 334 334
334 333 333 334 332 331 331 331 331 329 327 326 328 327 325 325 327 327 327 330 332 331 329 328 329 326 325 326 328 327 331 330 332 335 335 331 331 330 329 329 330 328 327 324 322 326 327 330 328 329 324 319 316 315 316 320 323 325 330 330 331 332
333 332 332 333 331 330 329 328 328 324 323 323 323 325 322 322 326 326 323 331 326 327 328 328 325 325 326 328 331 331 328 330 327 330 326 328 330 329 328 329 329 328 326 328 327 325 324 328 329 329 329 328 323 318 318 322 322 316 328 330 330 332
332 331 331 332 330 328 328 326 326 324 324 324 323 326 327 328 324 326 328 326 328 332 326 328 328 326 326 326 326 325 326 325 327 329 331 331 326 325 324 324 330 329 327 326 328 323 323 323 326 328 328 328 327 327 328 322 317 319 316 323 329 329
332 331 331 332 329 328 326 325 325 325 325 325 325 322 327 327 328 327 328 327 327 331 329 329 330 328 328 326 327 327 326 325 325 323 324 322 322 322 324 324 326 329 329 329 327 324 323 325 323 322 326 327 327 328 328 327 326 322 318 315 320 328
332 331 331 332 327 327 327 325 326 327 326 325 323 324 324 324 326 327 328 330 328 325 327 328 326 326 325 325 325 324 322 321 319 318 319 318 319 321 321 322 323 323 324 325 327 326 322 322 324 323 323 323 325 326 326 326 326 325 320 316 317 318
331 331 331 331 327 327 328 326 326 328 327 323 323 322 323 324 324 328 327 326 326 327 324 329 328 325 322 320 322 322 320 320 321 319 317 316 318 320 322 322 323 323 323 322 323 322 322 323 323 324 324 326 323 322 323 322 323 323 322 320 315 315
331 331 331 330 328 327 327 326 325 328 327 322 322 323 321 323 323 326 323 324 327 326 327 325 326 325 323 321 322 323 322 320 321 321 320 319 319 319 321 322 322 322 321 322 320 321 320 321 320 317 318 316 314 315 315 314 314 315 313 312 311 311
331 331 330 329 328 327 327 326 327 328 327 324 323 323 321 321 322 323 324 324 326 325 325 325 325 323 324 324 323 322 323 322 322 323 321 321 323 321 322 321 322 322 321 322 322 321 320 319 320 318 316 316 317 318 316 313 314 315 313 313 312 309
330 331 329 329 327 327 327 325 326 326 328 326 324 325 322 323 323 324 323 324 324 324 322 322 323 321 323 323 323 323 324 323 322 322 322 320 320 322 319 320 320 319 318 317 317 317 316 316 316 315 316 317 317 315 313 315 316 314 315 314 313 310
329 331 329 328 327 326 326 326 327 326 328 326 325 327 324 324 324 325 324 325 324 324 323 323 322 322 322 324 324 326 325 322 322 321 321 322 323 322 324 317 319 319 319 320 320 319 317 317 316 316 316 314 313 315 316 317 315 318 317 312 309 309
329 331 329 327 327 326 326 327 327 327 327 326 326 327 327 326 325 327 325 326 326 326 324 323 323 323 322 325 325 324 323 322 323 322 321 322 323 322 322 318 319 320 320 320 318 317 317 317 316 316 315 314 320 313 314 311 315 314 312 312 311 310
329 331 329 327 327 326 326 327 327 327 326 327 324 326 327 326 327 330 327 326 327 328 326 326 324 323 322 325 324 324 323 323 322 322 322 321 321 320 321 320 319 320 317 318 318 318 317 316 316 316 315 316 316 312 313 314 314 313 314 314 314 313
329 330 330 327 327 327 327 327 327 328 327 327 325 325 325 328 326 329 332 327 328 329 330 327 325 324 322 325 324 324 322 321 322 322 322 321 321 320 321 320 318 319 319 320 319 316 317 316 316 317 316 315 316 312 311 316 315 314 315 314 314 314

ECMWFFLT2_sfc_thetae_027.txt.gz
Theta_e
343 344 344 345 345 346 349 350 350 350 350 350 349 349 349 348 347 347 346 346 345 342 340 340 341 340 345 342 344 346 347 346 346 345 346 345 345 344 345 345 344 342 341 342 340 340 341 341 342 343 344 343 344 338 336 336 336 336 334 335 335 334
343 343 344 345 346 346 348 347 345 347 347 347 348 348 346 346 349 342 345 344 341 342 338 337 338 344 340 341 343 345 347 346 346 345 346 346 345 345 344 344 344 342 341 340 341 334 335 340 341 342 342 343 336 334 333 335 334 334 334 333 335 338
343 344 344 344 345 345 345 344 344 344 347 348 347 346 343 344 341 342 342 341 340 338 337 338 336 339 340 344 342 344 346 346 346 345 346 345 345 344 344 344 344 343 341 341 336 331 330 329 330 339 341 337 331 333 333 335 333 333 333 334 334 340
343 344 343 343 344 343 342 342 341 343 343 343 342 341 339 339 339 338 339 338 337 336 337 335 343 345 345 339 339 345 346 346 346 345 345 345 345 344 344 344 343 342 340 339 332 328 327 329 328 327 330 331 330 330 332 334 332 332 333 337 335 341
344 344 343 343 342 341 341 340 341 341 342 341 338 336 336 335 336 335 337 338 338 337 337 335 335 337 335 335 337 337 339 340 340 341 345 338 339 341 341 340 338 338 333 331 329 328 327 326 329 328 329 330 331 331 332 334 332 333 334 335 336 341
344 344 343 343 342 343 342 340 340 339 340 340 337 335 334 333 332 333 336 337 339 337 336 336 335 333 336 335 337 338 339 338 338 339 341 338 338 337 338 338 336 334 331 329 328 327 327 329 328 328 327 328 331 332 333 333 333 333 334 334 337 341
343 343 343 343 343 343 341 340 340 340 338 338 337 334 333 332 334 333 333 335 336 335 335 335 334 333 335 336 337 337 336 336 336 337 340 337 336 337 337 334 333 332 330 329 328 328 328 330 330 330 329 330 331 332 332 332 333 334 334 335 338 340
342 342 342 343 343 341 340 340 341 343 340 344 339 335 333 331 332 333 335 335 338 334 334 333 334 333 332 333 334 336 336 335 334 338 338 337 336 336 336 336 335 335 332 329 328 329 328 330 329 328 327 326 329 330 331 332 332 333 334 335 336 339
342 342 341 342 341 340 339 340 340 337 337 342 334 334 334 334 332 334 335 336 340 335 335 335 334 334 333 331 333 336 334 335 335 336 335 335 335 333 332 333 332 332 332 331 331 329 328 329 329 328 328 328 328 328 332 332 332 333 334 335 336 338
341 341 340 341 340 340 340 339 338 336 337 338 334 335 335 333 333 332 333 335 338 337 335 334 334 333 332 332 333 332 333 333 333 333 334 333 334 332 333 334 332 331 331 331 330 329 328 327 329 330 329 327 327 328 331 332 332 332 333 335 336 338
340 343 338 339 340 339 339 338 338 338 338 335 336 338 336 335 335 333 333 335 337 337 335 334 334 334 333 333 332 330 329 331 332 333 335 334 335 331 333 332 331 330 329 329 328 327 328 327 328 328 328 327 326 327 329 332 333 333 333 334 335 337
337 337 336 338 340 338 336 337 338 336 335 335 336 334 334 333 338 333 335 334 335 336 336 335 334 335 333 332 331 329 329 330 331 333 333 333 333 333 333 333 332 331 331 330 329 327 327 324 326 327 327 326 326 327 327 329 331 333 333 333 335 336
331 330 330 334 333 334 335 336 334 334 334 336 334 332 330 333 332 333 334 334 335 336 334 333 330 331 333 330 330 329 330 330 331 334 333 332 332 334 334 333 333 333 330 328 328 326 329 325 324 326 326 326 326 326 325 328 328 331 333 333 334 335
327 327 329 330 328 332 333 333 333 333 336 332 332 332 333 331 333 333 336 335 335 336 337 333 330 329 330 331 330 330 331 333 334 334 333 332 332 333 333 332 331 330 331 328 325 326 322 323 323 325 325 326 325 326 328 326 326 329 333 332 332 332
330 331 332 328 327 330 333 334 333 332 331 331 331 331 331 331 331 333 336 335 336 335 337 335 333 331 330 330 330 331 330 331 330 330 330 329 329 329 330 331 330 328 329 325 325 326 323 322 322 326 328 328 328 330 330 330 330 329 330 333 331 332
330 329 328 329 328 327 329 331 332 335 329 330 330 329 330 331 333 334 336 335 334 335 335 335 335 330 328 330 331 329 329 330 328 330 330 329 329 328 329 331 332 330 329 327 327 327 329 328 329 329 330 329 329 329 328 329 330 330 330 328 332 332
331 332 330 329 327 325 323 323 324 327 330 331 330 330 331 332 334 335 335 334 334 335 333 332 334 334 331 331 332 331 331 330 329 329 329 328 328 330 329 333 331 332 329 326 328 329 329 329 329 330 330 328 329 329 329 328 328 330 331 329 327 332
332 331 328 327 325 322 323 321 319 324 328 328 331 331 331 332 332 332 332 332 335 334 332 331 332 331 331 332 330 329 328 326 328 327 328 327 327 331 331 332 329 330 329 327 325 326 327 327 331 331 329 329 327 327 327 329 329 331 330 330 330 328
332 330 329 328 325 320 317 318 318 320 319 321 326 326 327 326 327 328 329 332 334 334 333 331 330 330 329 330 330 329 328 328 328 325 326 326 327 329 328 330 329 326 328 327 326 327 327 328 330 331 330 329 329 328 329 329 331 330 330 330 331 332
331 330 327 323 322 318 317 317 317 320 320 321 323 324 323 322 323 324 328 328 331 331 333 333 332 331 330 329 328 327 326 329 329 328 329 328 324 326 327 327 326 326 326 328 329 328 328 327 328 327 327 329 331 331 328 326 326 328 330 331 330 330
330 330 325 321 319 318 317 318 318 316 317 318 321 321 322 322 323 323 324 324 324 323 325 324 327 332 332 333 329 328 326 326 328 327 327 326 326 327 326 326 328 326 325 325 325 327 328 327 326 322 323 327 327 331 328 328 327 327 330 331 331 330
330 329 326 323 321 322 320 319 317 315 315 317 319 318 317 318 319 321 321 323 325 323 319 319 321 324 325 330 328 327 326 326 327 326 325 326 326 329 326 326 326 324 326 323 321 325 327 326 321 319 318 319 323 326 325 325 326 328 331 334 332 331
329 329 326 326 321 321 321 323 321 318 319 318 320 320 319 319 321 321 321 322 324 323 323 320 319 322 322 323 325 325 326 328 329 328 325 324 324 325 325 326 326 324 321 323 322 325 324 325 319 321 320 318 316 316 319 324 327 331 334 334 334 332
328 328 327 324 323 322 322 322 322 321 320 319 318 321 319 319 318 319 320 323 323 321 321 321 321 321 320 321 321 322 326 328 329 329 326 324 323 324 325 325 325 325 324 320 321 321 325 323 322 321 315 314 315 314 312 316 320 324 328 329 332 332
327 326 325 324 323 322 320 318 319 318 319 318 317 315 316 315 317 322 320 319 320 322 321 320 320 321 323 320 319 319 322 324 327 328 328 326 324 324 323 321 323 321 321 320 320 322 324 325 324 326 319 315 312 311 311 315 318 321 326 327 329 332
326 325 323 322 322 321 318 316 315 314 313 312 313 312 312 314 315 316 317 319 321 321 321 319 318 319 320 321 318 319 319 320 320 319 323 326 326 326 325 324 323 323 323 324 322 322 323 325 325 325 324 321 318 313 314 317 316 312 322 327 327 330
325 324 324 322 323 322 318 316 315 314 314 314 314 314 315 317 317 317 317 318 319 320 320 318 317 319 320 321 319 316 313 314 319 320 320 319 320 321 324 327 326 323 322 322 323 320 320 321 324 324 324 324 325 324 322 317 313 316 313 319 324 326
325 325 323 322 322 321 318 316 315 315 316 316 316 315 315 317 318 319 319 320 320 320 321 321 320 319 318 318 316 314 313 312 314 317 318 317 316 317 319 322 323 324 323 322 322 321 319 319 319 318 321 322 324 324 324 324 320 316 312 310 314 321
325 324 323 322 321 320 319 316 315 315 318 317 317 317 317 318 317 319 317 317 317 317 318 319 318 316 315 317 317 314 313 313 310 311 315 315 316 317 316 317 317 317 317 320 321 320 319 318 319 317 319 319 322 322 322 322 322 320 315 311 311 314
324 324 323 321 321 319 318 318 315 316 316 316 316 315 315 315 315 317 316 315 314 315 316 313 314 314 314 314 313 313 312 313 314 315 314 313 313 314 314 315 315 316 316 315 316 317 318 318 319 318 319 319 315 318 318 318 318 318 317 315 311 311
325 325 323 320 320 318 317 317 317 317 316 315 314 314 314 313 315 314 315 316 315 316 315 314 313 312 312 312 313 316 314 314 315 317 316 313 313 314 315 315 316 315 315 315 313 313 313 314 312 311 312 312 311 311 311 310 309 310 309 307 307 306
325 324 323 320 320 318 317 317 318 317 316 315 315 315 314 313 314 314 314 315 316 315 315 313 312 312 313 313 313 312 313 313 314 312 312 314 315 316 316 316 315 314 312 313 313 313 311 311 311 311 310 310 309 310 310 309 310 310 308 308 308 306
324 324 323 320 319 318 316 316 319 317 315 316 316 315 315 314 315 314 314 315 315 314 314 313 312 312 310 311 313 314 314 312 312 313 313 313 313 314 314 313 313 313 313 312 312 311 310 309 310 309 309 309 310 310 309 310 311 309 309 308 306 302
322 323 323 320 320 318 316 316 319 317 316 317 316 316 315 315 315 314 316 315 315 314 314 313 312 311 313 314 314 315 313 311 311 313 313 312 313 314 314 314 313 313 313 312 312 311 310 309 309 309 310 309 308 309 307 309 309 308 307 306 303 303
320 322 323 320 319 318 316 316 318 318 316 317 317 316 317 317 316 315 316 316 316 315 315 315 314 314 315 313 314 313 312 312 312 311 312 312 315 314 314 314 314 313 312 311 311 311 309 309 310 309 309 309 309 307 306 308 308 309 308 308 306 305
320 321 323 320 319 318 317 317 318 318 317 319 319 317 317 318 317 316 317 316 317 316 316 315 315 314 315 316 315 314 313 312 312 312 312 312 312 312 312 312 311 309 309 314 310 309 309 309 308 307 308 308 306 305 308 309 308 308 308 310 309 307
320 321 321 321 320 319 319 319 318 318 317 317 318 317 317 316 318 318 317 316 318 317 317 316 315 314 315 316 315 313 313 313 312 312 311 312 312 311 312 312 310 309 309 311 311 310 309 308 308 308 307 308 305 306 307 308 308 309 309 307 308 308

ECMWFFLT2_sfc_thetae_030.txt.gz
Theta_e
344 345 346 346 346 347 349 350 350 350 350 350 349 350 349 350 349 348 347 347 345 341 340 341 342 342 347 343 345 346 347 346 345 345 345 344 345 345 345 344 342 341 341 340 340 339 340 340 341 342 343 343 341 332 331 333 332 334 333 333 335 333
343 343 344 345 346 347 348 348 346 347 347 347 349 349 347 345 350 343 346 343 340 342 337 335 337 346 340 343 343 346 347 345 346 345 345 345 345 345 345 344 343 341 341 340 339 328 330 335 337 339 340 340 332 330 330 333 332 332 333 331 333 336
342 342 343 344 345 345 344 344 344 344 345 347 349 347 343 347 339 340 340 340 339 337 336 336 337 340 340 345 342 346 346 345 346 345 344 345 345 345 344 344 343 342 341 340 334 328 325 325 325 334 335 329 328 329 330 332 332 332 332 332 331 340
342 342 342 342 343 343 344 343 343 342 342 342 342 341 337 337 337 338 338 337 336 337 335 332 345 346 345 339 339 344 344 343 345 345 344 343 343 344 344 344 343 342 340 339 329 327 325 323 324 325 325 325 326 328 330 331 331 331 331 336 333 341
342 342 342 342 342 341 342 341 341 340 340 338 336 334 334 333 334 335 337 336 336 336 334 333 331 334 335 334 334 336 338 337 337 337 343 335 336 339 338 338 335 337 330 330 329 326 325 324 325 326 326 325 327 328 330 331 330 330 332 334 334 341
342 342 341 341 340 342 341 339 339 338 337 336 334 332 331 331 331 332 335 337 337 334 334 333 331 331 331 331 333 335 335 335 334 336 338 336 335 336 334 336 335 334 331 329 328 327 325 327 325 325 325 325 326 328 329 329 330 331 332 332 336 341
342 342 342 341 341 341 338 338 338 338 336 333 331 331 330 330 329 330 332 337 334 334 335 333 332 330 331 332 333 334 335 334 335 336 337 335 336 336 335 334 334 334 332 328 328 327 326 325 325 326 326 326 326 329 329 329 331 332 332 333 337 341
342 342 341 342 341 339 338 338 339 343 337 339 334 331 329 329 329 330 332 335 337 334 334 332 331 331 330 331 332 334 333 332 333 336 337 334 335 334 335 333 332 332 331 330 328 327 326 326 326 325 327 326 327 328 329 330 331 332 332 333 335 340
342 342 341 342 340 339 338 338 339 337 335 342 332 331 330 330 329 331 332 334 338 333 332 332 331 331 329 331 332 332 332 333 334 335 335 333 334 334 335 334 332 332 330 329 327 327 326 326 325 326 326 326 325 328 329 330 330 332 332 333 333 337
342 341 341 341 339 338 338 338 337 336 335 339 330 331 332 330 329 330 330 333 336 334 333 332 332 331 330 330 331 331 332 332 333 333 333 331 330 331 331 332 330 330 330 329 328 328 328 327 327 326 325 325 324 328 329 329 330 332 333 333 333 335
341 343 341 340 338 338 339 337 336 335 335 332 332 334 332 331 330 329 329 331 335 336 333 332 332 331 330 331 330 330 330 331 331 330 330 331 332 330 330 330 330 328 327 327 327 328 328 327 326 326 326 325 325 327 329 329 330 331 333 333 333 333
340 341 340 339 340 338 337 337 337 335 333 332 334 331 330 331 335 330 331 330 333 335 335 332 332 331 330 329 329 329 330 329 328 330 331 332 331 330 329 330 331 330 328 327 327 327 326 325 325 326 326 325 325 326 329 329 329 331 332 333 333 334
339 339 338 338 338 337 336 338 335 334 333 335 334 331 330 331 331 332 333 333 333 334 333 330 330 332 332 327 328 327 326 327 328 330 328 329 330 329 330 330 328 330 329 327 325 325 326 324 324 324 323 325 323 323 327 327 327 329 331 332 333 334
335 335 335 335 336 335 335 334 334 332 335 332 331 330 332 329 331 330 331 331 333 334 331 329 329 329 330 328 327 326 326 326 328 328 329 328 329 330 328 329 329 328 331 328 325 324 321 321 322 324 326 327 328 327 327 325 326 328 329 329 332 333
331 330 332 333 335 333 333 333 331 330 330 327 327 326 327 327 328 330 331 331 332 333 331 329 330 331 332 330 328 326 328 328 328 327 326 326 326 329 328 327 328 328 325 323 323 325 323 323 325 326 326 326 327 327 328 327 327 328 330 330 330 331
328 327 328 332 332 332 332 330 330 334 327 326 327 327 326 327 329 331 332 331 331 333 331 330 329 329 329 329 327 326 328 330 329 328 327 326 327 328 328 328 329 326 323 325 326 326 326 326 327 327 326 326 326 327 326 327 328 328 328 330 329 330
326 327 328 330 330 330 330 329 329 328 327 327 326 326 326 328 329 332 330 329 331 333 330 329 328 328 326 327 327 327 328 328 328 328 326 325 325 326 329 330 327 329 325 324 327 327 326 327 327 327 327 327 327 327 327 328 327 327 328 328 328 329
326 327 327 328 327 326 326 327 326 326 330 327 327 327 328 330 329 329 329 329 330 332 330 329 330 328 327 327 328 327 327 327 327 327 326 325 324 327 329 327 326 327 326 326 324 324 323 324 329 327 325 326 326 326 327 328 329 330 327 326 327 329
325 325 324 323 322 320 318 319 320 325 325 325 324 323 325 325 324 327 327 328 329 329 330 328 328 328 325 327 326 325 325 325 326 325 327 326 326 327 327 326 326 324 325 325 324 324 324 324 326 326 326 326 326 327 325 324 326 327 327 327 327 330
325 324 321 319 317 315 316 319 318 320 321 321 321 322 320 321 322 325 329 329 328 326 329 328 327 326 325 325 323 323 323 326 326 325 326 326 326 326 324 323 321 324 324 325 326 325 324 324 323 324 324 325 327 327 327 325 325 325 328 327 327 327
325 322 318 316 314 313 315 316 316 318 317 317 319 319 320 319 320 321 322 325 325 324 326 328 328 326 324 328 323 323 324 327 328 325 326 327 327 326 323 323 324 323 322 321 323 326 325 323 321 319 318 321 324 326 327 324 325 326 327 330 329 329
324 320 318 315 315 314 315 316 316 316 317 317 317 316 315 316 317 321 320 321 321 317 318 322 326 326 326 324 322 323 324 326 327 324 325 325 324 326 325 325 323 322 323 321 322 326 325 321 317 315 316 316 318 323 325 323 321 325 327 329 326 327
324 320 318 318 317 316 316 316 317 315 318 315 316 316 315 318 320 319 319 319 318 317 317 317 318 321 325 325 322 321 322 322 325 327 325 325 323 321 322 324 323 321 319 320 321 324 321 320 315 317 316 316 312 315 316 320 322 326 328 329 328 329
324 322 320 322 321 319 320 317 318 318 317 316 315 319 316 316 317 318 318 319 319 317 317 317 318 318 318 319 320 320 321 323 324 324 322 320 320 321 321 321 322 321 320 318 319 319 323 321 318 317 313 313 313 311 309 314 315 319 324 327 330 331
325 322 320 322 320 320 319 317 317 317 317 315 315 314 314 314 316 318 316 316 316 316 317 317 317 318 319 315 316 318 320 321 322 323 323 321 319 320 319 318 320 319 318 319 320 322 324 323 321 323 316 313 310 309 309 311 313 315 321 322 326 329
323 321 320 319 320 319 318 316 315 313 312 311 310 311 311 313 312 314 314 316 316 316 316 316 317 316 316 315 312 314 315 316 318 321 323 321 321 321 320 319 318 318 319 318 319 321 322 324 321 322 322 317 314 310 311 315 313 310 317 321 321 325
323 320 319 318 318 318 316 315 314 313 312 312 311 310 311 312 313 314 314 313 314 314 315 316 315 313 312 313 312 315 316 316 318 318 320 318 317 317 322 323 321 320 319 319 319 316 320 321 320 321 321 320 322 324 318 314 310 312 309 314 317 322
322 320 319 318 317 317 315 313 313 312 313 312 312 313 314 313 313 314 314 314 314 314 315 315 314 313 313 314 312 311 312 314 315 316 317 314 315 316 319 321 321 319 319 320 320 319 319 320 317 315 320 320 321 323 321 320 315 312 307 307 312 316
321 320 319 318 317 316 316 314 314 314 314 314 314 315 315 316 315 315 313 312 313 313 312 311 312 312 311 313 315 311 310 311 312 314 317 315 315 316 315 314 314 315 315 317 319 318 317 316 316 316 318 318 319 319 318 317 318 316 312 308 310 312
321 319 319 318 317 316 316 315 314 315 315 314 315 314 314 314 313 313 312 310 310 310 309 309 309 310 310 311 311 312 312 311 311 314 314 312 312 313 313 313 313 313 313 312 313 315 315 313 314 314 315 315 315 317 315 311 310 311 312 311 309 308
321 320 319 318 317 316 315 315 316 316 315 314 314 313 313 313 313 311 311 309 309 308 309 308 308 308 309 311 312 314 312 312 313 315 313 312 312 313 312 312 312 312 311 310 310 310 311 310 310 310 310 311 312 312 311 308 307 309 308 306 305 304
321 320 318 318 317 317 315 315 317 317 316 315 314 313 313 313 312 311 311 310 309 309 307 308 308 308 308 309 311 310 311 310 311 310 311 312 312 312 312 311 310 310 310 310 310 310 308 307 308 307 307 307 308 309 309 308 309 308 307 307 306 304
320 319 318 317 316 316 316 316 317 316 315 315 314 313 313 313 312 312 312 311 309 307 307 309 307 307 308 308 310 309 309 310 310 311 310 311 310 310 311 310 311 310 309 309 308 307 307 305 307 307 306 306 307 307 307 307 308 307 306 305 303 301
319 320 318 317 316 314 314 317 317 316 315 315 313 313 313 313 312 314 313 311 310 309 308 308 307 307 309 309 309 310 309 309 309 310 311 310 310 310 311 312 310 310 309 307 308 307 306 305 306 305 305 304 305 306 306 307 305 306 304 303 300 300
317 319 319 317 316 314 314 316 316 315 316 315 314 313 313 313 313 314 313 312 311 310 309 309 308 309 311 309 308 308 308 308 309 309 311 311 313 311 311 312 310 309 307 306 307 308 305 306 307 306 305 304 306 305 305 306 306 306 306 304 303 302
318 319 319 318 317 316 316 317 317 316 316 316 316 314 314 314 313 315 314 313 312 311 311 310 310 311 311 311 309 309 309 307 307 308 310 310 310 311 310 308 307 307 307 311 308 307 305 305 305 304 303 303 305 304 305 305 306 305 305 306 305 303
319 319 319 319 316 317 318 317 317 317 318 317 316 314 315 315 313 314 314 313 313 312 312 311 312 312 312 310 309 309 308 308 308 308 308 309 309 308 309 309 307 307 308 307 309 306 305 305 303 303 303 302 303 304 303 304 304 306 304 304 305 304

ECMWFFLT2_sfc_thetae_033.txt.gz
Theta_e
347 347 347 347 346 346 348 349 349 350 350 350 349 350 349 350 348 348 347 347 343 340 339 339 341 341 347 341 344 346 346 345 345 345 345 345 345 344 343 343 342 340 341 340 340 340 338 337 338 340 341 339 338 331 331 330 330 332 330 331 334 329
345 346 346 346 346 346 347 347 344 345 346 347 348 348 346 345 348 343 346 342 339 342 336 336 337 345 340 342 342 346 345 345 345 345 345 345 345 344 344 343 341 340 340 340 339 325 326 333 334 337 337 337 327 326 331 330 330 331 331 329 331 332
344 345 345 345 345 345 344 343 342 343 345 348 348 347 343 344 339 339 338 338 338 336 335 337 337 342 341 345 342 346 345 344 345 345 344 345 344 344 344 343 342 341 340 339 328 322 321 320 321 333 333 326 324 326 329 330 330 331 331 329 329 337
343 344 344 344 343 343 344 344 342 340 341 341 341 341 338 338 338 337 336 335 334 336 334 332 346 346 345 339 339 344 345 344 344 344 344 344 344 343 344 344 342 341 340 336 326 324 323 320 322 322 322 323 324 324 328 330 330 330 330 335 330 339
342 342 343 342 343 343 344 343 340 338 338 337 336 335 335 334 336 336 334 334 334 334 332 331 331 334 335 334 335 336 337 335 336 337 343 334 335 338 338 334 334 336 327 328 327 325 323 322 322 323 323 323 325 325 327 330 329 329 329 331 331 340
341 341 342 342 342 343 343 341 339 337 337 336 335 333 332 332 334 335 334 336 336 332 331 330 329 329 332 332 335 335 332 332 333 334 336 334 333 331 330 335 334 332 328 326 325 325 323 325 324 323 323 324 324 325 327 327 328 329 330 330 333 341
339 340 341 342 342 342 341 341 338 338 336 334 332 331 330 330 331 334 337 338 335 334 333 330 329 328 330 332 334 335 333 333 332 333 335 334 333 333 333 331 331 332 328 327 326 326 323 324 322 324 324 325 325 326 326 327 328 329 329 330 334 341
339 339 339 341 341 340 339 338 338 342 336 338 333 330 329 329 330 332 335 336 337 334 333 331 330 329 330 329 333 334 332 332 332 333 333 333 332 331 332 331 331 329 330 328 327 326 325 325 323 322 324 324 325 325 327 327 329 329 329 330 333 340
340 339 339 340 339 338 337 336 337 337 335 341 330 330 329 330 330 331 332 336 336 333 333 331 329 329 328 331 330 331 331 330 330 333 333 332 331 331 332 332 330 330 328 326 324 325 325 326 323 323 323 324 324 325 326 327 328 329 328 329 332 337
340 340 339 339 337 336 336 336 336 335 335 339 330 330 330 329 330 331 331 333 335 333 331 330 329 328 327 329 329 330 329 328 329 329 331 329 329 330 331 332 330 329 330 327 327 326 327 327 327 326 324 323 324 326 327 328 329 329 330 331 332 334
341 342 340 338 337 337 337 336 336 334 336 334 332 333 330 328 329 330 331 332 333 333 331 329 329 328 327 328 327 327 327 327 327 328 329 327 328 329 329 331 330 328 326 325 327 327 327 327 326 326 324 324 323 326 328 328 329 330 331 331 331 330
341 342 340 338 339 337 337 336 336 333 333 331 333 330 329 328 331 328 330 330 331 331 332 329 329 328 329 327 326 326 325 326 325 327 327 329 329 328 328 329 330 329 327 326 326 325 325 324 324 324 324 324 323 326 326 327 328 330 329 329 330 331
341 341 338 338 337 336 336 337 335 332 332 333 332 330 327 327 328 329 328 329 331 334 331 330 328 329 332 326 326 326 325 326 326 325 326 328 330 328 327 327 326 328 327 326 325 324 324 322 321 321 322 323 323 327 328 327 328 329 329 330 329 330
339 339 337 337 336 335 335 334 333 331 333 330 329 328 329 326 329 329 330 329 332 334 332 329 329 327 328 325 325 325 324 324 327 328 326 327 328 328 326 326 326 326 329 326 324 322 320 321 322 324 325 326 325 324 326 327 327 327 328 329 330 329
338 336 338 336 336 334 333 333 331 329 328 328 329 327 325 326 327 327 329 329 329 331 332 331 329 328 327 326 324 324 325 327 329 326 325 325 326 324 324 324 324 325 322 321 322 324 322 323 322 324 324 325 326 326 325 325 326 327 328 328 329 329
334 333 334 335 333 332 332 329 329 331 326 325 325 325 324 326 327 327 329 329 330 330 329 329 328 326 325 325 324 324 326 327 327 325 324 324 324 324 323 325 326 325 322 323 324 324 324 324 324 325 324 325 325 326 325 325 325 327 328 328 329 328
331 331 332 332 330 328 328 327 327 326 325 324 324 323 324 326 330 330 328 329 329 330 329 328 326 326 324 324 324 323 325 325 326 326 323 322 323 324 324 327 324 326 323 323 324 325 324 324 325 325 325 325 325 326 326 327 326 325 328 326 327 328
328 329 331 331 329 327 326 326 325 325 328 324 323 324 326 328 329 328 328 327 327 330 328 326 325 326 325 327 326 325 325 325 325 325 326 324 323 325 325 325 323 325 325 323 324 324 323 323 325 325 324 324 322 324 324 325 326 328 325 325 324 327
327 327 328 328 326 323 321 321 322 323 322 321 320 321 324 323 323 326 325 326 328 330 330 325 326 327 325 326 327 327 324 323 324 325 327 326 324 326 326 322 322 322 324 324 322 323 324 324 325 324 324 323 323 323 323 324 324 326 326 325 325 328
326 326 325 322 320 319 320 321 321 319 320 319 318 321 318 319 320 322 326 325 323 323 327 326 325 324 325 324 324 325 323 324 326 327 327 326 326 326 324 322 322 322 322 324 325 325 324 324 322 322 322 324 325 325 325 324 324 324 327 325 324 324
324 323 322 318 318 318 316 316 316 317 316 315 318 317 317 317 318 319 321 323 323 322 322 324 326 323 322 329 326 324 325 326 326 325 326 327 327 325 322 323 323 322 321 321 323 326 325 322 321 317 317 318 322 325 327 323 323 324 326 328 326 325
321 320 319 318 318 317 316 318 317 315 315 315 316 316 314 315 316 319 318 317 316 315 317 320 324 322 324 323 323 324 326 327 328 326 325 325 325 327 326 325 323 322 322 321 322 326 324 321 316 314 313 313 314 318 323 322 322 324 325 327 328 328
319 317 315 316 316 316 314 317 317 314 316 312 313 314 315 317 317 316 315 315 316 315 315 314 318 323 323 322 321 322 324 327 327 327 327 326 325 325 325 324 321 320 319 320 322 324 320 318 315 316 315 314 310 311 315 318 323 326 327 328 327 328
317 316 315 318 318 316 317 316 316 315 313 313 314 316 314 314 314 314 314 315 315 315 315 315 315 319 318 319 319 319 323 326 327 326 325 324 323 323 323 324 321 319 317 315 318 319 323 321 318 316 312 311 311 310 308 312 314 319 325 327 327 327
317 316 317 320 317 318 318 315 315 314 315 314 314 313 314 312 314 316 314 314 313 313 314 314 314 315 317 314 317 322 324 325 326 323 323 322 322 321 320 320 319 318 317 317 318 320 323 324 322 321 316 311 307 306 307 310 311 316 321 323 323 327
318 317 318 317 317 318 317 314 313 312 310 309 311 310 309 310 310 311 311 312 312 313 313 312 311 312 314 314 314 314 315 319 319 319 320 319 320 319 317 319 319 319 317 317 318 320 321 323 320 319 318 316 312 309 311 316 314 311 316 320 321 324
319 318 318 317 317 318 315 314 313 312 311 311 310 308 308 309 311 310 311 311 311 312 311 311 310 310 312 315 314 314 316 316 315 315 318 315 316 318 321 322 321 319 318 317 317 317 321 320 318 318 318 319 322 324 320 314 309 309 309 313 315 321
320 319 318 317 316 317 315 313 311 310 312 310 311 311 310 310 310 311 311 311 311 310 311 310 310 310 311 313 313 312 313 314 314 316 317 313 313 315 318 320 318 317 317 318 318 319 318 320 316 314 316 315 318 320 318 315 312 311 307 307 310 315
319 318 316 316 316 315 316 313 312 312 311 311 311 312 312 312 311 310 310 309 310 308 308 308 308 309 310 312 314 311 312 312 313 314 316 314 312 313 312 312 313 314 314 315 317 316 316 314 313 311 313 314 316 316 314 313 315 314 310 307 307 309
318 316 316 315 315 313 314 314 312 312 311 310 312 310 310 310 309 309 309 307 306 306 307 307 308 308 309 309 309 310 310 311 311 314 314 311 311 311 311 311 310 311 312 312 312 313 312 310 310 310 313 314 312 313 310 309 308 310 309 310 309 308
316 316 315 314 313 313 313 313 313 313 313 313 312 311 311 308 309 308 309 306 306 306 306 306 307 307 308 309 310 312 310 310 312 316 312 311 309 309 308 308 309 309 309 309 309 308 309 308 308 308 310 313 312 311 309 306 307 307 307 304 304 304
315 316 315 313 312 313 313 313 313 313 314 313 312 312 311 310 308 308 306 306 306 305 304 305 305 306 306 307 310 308 309 308 310 309 309 309 309 309 309 308 308 308 307 307 307 308 305 305 305 306 306 307 309 310 310 309 310 308 307 306 304 304
316 316 315 314 313 312 312 313 314 313 313 314 313 312 312 311 309 309 307 305 304 304 304 305 305 306 305 306 308 308 308 309 309 310 308 308 307 309 309 309 308 307 306 305 304 305 304 303 304 304 303 304 304 306 306 306 307 306 304 304 303 300
317 318 316 315 314 312 313 314 314 314 314 314 312 312 312 313 311 309 309 306 305 305 305 304 304 305 307 306 307 309 308 307 307 308 308 308 308 308 308 308 307 307 306 304 305 305 305 304 304 302 302 304 304 304 303 304 302 303 301 300 298 298
317 318 317 315 313 313 314 314 314 314 314 313 313 313 314 314 312 310 308 306 305 305 305 305 305 305 307 305 306 306 306 307 307 308 309 310 311 309 309 309 308 306 306 305 305 305 303 304 305 303 303 303 305 303 302 302 303 303 302 302 301 299
317 317 318 316 314 315 316 315 314 314 314 314 315 314 314 314 312 310 310 309 307 306 306 305 304 307 307 306 305 306 307 305 306 307 307 307 307 307 306 306 305 306 307 308 305 304 303 303 302 301 302 301 303 301 301 302 303 302 303 302 302 299
316 317 318 318 315 316 315 315 314 314 314 313 313 313 314 313 313 313 311 309 308 308 306 306 307 309 307 306 306 306 305 305 306 307 306 307 307 305 305 306 306 305 306 304 306 303 302 302 300 301 301 302 302 302 301 301 302 303 302 301 302 300

ECMWFFLT2_sfc_thetae_036.txt.gz
Theta_e
347 347 347 346 346 346 348 349 349 349 348 349 349 349 349 349 348 348 347 346 342 340 340 341 343 342 346 344 344 345 346 345 345 345 344 344 344 344 343 343 341 340 340 340 339 337 337 338 339 339 339 339 339 334 331 331 332 335 333 337 338 330
346 346 347 346 346 346 347 347 345 345 346 347 347 348 346 346 347 343 345 342 340 342 338 338 340 346 343 345 344 346 346 345 345 345 344 344 344 344 343 342 341 340 340 340 335 325 326 333 336 336 337 337 331 331 331 332 332 333 335 335 335 334
345 346 346 346 345 345 344 344 344 344 346 347 347 346 343 344 340 340 340 341 340 337 338 340 340 343 343 345 344 345 345 344 344 345 344 344 344 344 344 343 341 341 340 338 327 324 323 322 326 333 333 328 328 330 331 332 332 333 333 334 333 336
344 345 344 344 344 343 344 344 344 343 342 341 342 342 341 341 340 339 338 337 337 338 336 336 345 346 345 342 341 344 345 343 344 344 344 344 344 344 344 344 342 340 332 331 327 327 325 324 324 325 326 326 328 329 331 332 332 332 332 336 331 337
344 344 343 343 344 344 344 344 343 342 341 341 340 339 339 339 339 337 335 336 336 337 333 333 333 336 335 336 336 337 339 337 339 338 343 337 338 339 339 336 335 334 328 329 328 326 326 326 326 326 326 327 328 329 331 332 332 332 332 334 334 337
342 343 343 342 343 343 344 342 341 341 340 340 338 337 337 337 337 335 333 335 336 333 333 331 331 333 333 333 335 336 334 334 335 337 340 335 335 334 334 336 336 335 332 330 328 328 327 328 325 325 326 327 327 329 330 331 331 332 332 333 335 338
341 341 342 342 342 342 341 342 341 340 338 337 336 335 334 335 336 335 334 336 333 333 333 331 330 331 332 333 335 336 334 333 333 332 335 334 334 333 335 335 335 335 333 332 330 329 327 326 324 326 326 327 327 329 330 330 331 331 332 332 334 338
340 340 340 341 341 340 340 340 341 341 338 339 336 333 332 334 336 336 336 335 335 333 333 332 331 331 332 332 335 336 333 333 331 330 333 334 334 334 335 334 334 332 334 331 329 329 327 326 325 325 327 326 327 328 329 330 331 331 331 332 333 338
339 339 339 339 338 340 339 338 340 339 338 341 332 331 330 332 333 335 336 336 335 333 332 332 332 332 331 332 334 335 332 331 331 332 334 335 335 334 335 335 334 332 330 329 327 328 328 329 326 325 325 327 328 328 328 329 330 331 331 332 333 336
339 339 339 338 338 338 338 337 339 338 338 338 330 329 330 329 331 333 334 336 336 333 332 332 332 331 331 331 331 333 331 329 328 331 334 332 331 332 334 334 334 332 330 328 329 329 331 329 328 328 325 327 327 328 328 329 330 331 331 332 333 336
339 340 339 338 338 337 338 337 338 338 339 334 332 331 329 328 330 331 333 335 335 334 332 331 330 330 330 331 331 331 329 329 328 329 329 327 328 331 331 333 333 331 329 327 328 327 327 327 326 326 327 326 326 327 329 329 330 331 332 332 333 334
339 339 338 338 338 337 336 337 336 336 336 334 333 330 329 328 332 330 332 334 334 333 333 329 328 328 330 331 330 330 328 328 326 327 328 329 329 329 330 331 331 330 329 328 327 327 327 325 324 324 325 326 325 327 328 329 330 331 332 332 333 334
340 339 337 337 337 335 335 336 333 333 334 335 334 330 328 329 329 330 332 332 334 335 334 331 328 330 333 331 330 328 326 326 327 328 328 329 330 329 329 328 328 330 328 328 328 327 325 323 323 323 324 325 326 328 329 329 330 331 331 332 333 333
340 339 337 335 334 333 333 333 332 332 334 332 331 328 329 329 331 330 330 329 334 336 332 329 329 329 330 330 330 329 327 327 328 328 328 329 329 327 328 327 325 328 330 327 327 326 323 324 325 326 326 326 326 328 329 329 329 330 331 332 332 332
338 336 337 334 333 332 331 332 330 329 330 332 332 329 328 329 330 330 330 330 332 334 331 330 329 329 328 329 327 326 327 328 329 327 327 327 328 325 326 325 326 327 324 324 324 327 323 325 325 325 326 327 327 326 328 328 328 329 330 331 332 333
336 334 333 332 329 330 330 329 330 331 329 331 330 327 327 328 329 330 331 330 329 331 330 328 328 328 328 328 326 326 327 328 329 326 326 326 327 327 325 326 327 325 324 325 326 325 326 325 325 326 326 327 327 328 327 327 327 328 329 330 331 332
334 334 331 331 329 327 327 328 329 329 326 326 326 325 325 327 330 329 329 331 329 330 329 328 328 327 326 326 326 326 327 328 328 326 324 324 325 326 326 326 325 326 325 325 326 326 325 326 326 326 326 326 327 328 328 328 327 327 328 328 329 331
331 331 330 329 328 327 327 326 326 327 328 323 323 324 325 329 329 328 328 328 330 330 329 329 328 326 325 327 327 326 326 327 326 325 326 325 325 326 325 325 324 325 326 325 325 325 324 325 326 325 324 324 324 325 325 327 328 329 328 328 328 330
329 329 328 327 326 324 324 323 323 323 322 322 322 322 323 324 325 325 325 325 329 330 329 327 326 326 325 329 328 326 326 325 326 325 326 325 325 327 327 324 324 324 325 325 325 325 325 324 325 325 325 325 325 325 325 326 328 328 327 328 328 329
327 328 326 324 324 323 323 322 321 321 321 320 320 323 319 319 320 322 325 326 326 326 329 328 326 325 327 326 326 327 326 326 326 326 326 325 325 326 325 322 323 323 322 325 325 325 325 324 323 323 324 325 325 326 326 326 326 328 330 329 329 329
326 326 325 322 321 321 319 316 317 317 316 315 319 318 317 317 318 319 320 323 326 326 327 328 326 324 324 329 327 326 326 326 326 326 326 326 327 327 326 323 324 323 321 320 324 325 325 324 323 321 320 321 324 325 326 325 325 327 330 331 330 328
324 324 324 323 322 319 315 319 318 315 314 315 316 316 315 316 317 318 317 316 317 321 324 325 326 324 324 325 325 325 325 326 327 326 327 328 327 328 326 324 323 321 321 320 321 325 325 321 317 317 316 317 320 321 323 324 325 327 329 329 329 329
323 323 321 321 319 318 315 315 314 313 315 312 312 314 315 317 317 314 314 314 315 315 316 319 324 325 323 324 324 324 326 327 327 328 327 326 327 326 326 325 323 320 318 320 323 324 322 320 317 316 317 316 313 313 317 323 325 326 327 329 329 331
321 318 317 320 319 316 317 315 314 313 313 313 315 318 314 314 314 314 314 313 314 313 314 316 321 325 323 322 321 323 326 328 328 328 327 326 325 325 325 324 323 321 319 318 318 319 322 321 317 318 314 314 312 312 310 315 317 322 324 326 328 329
318 316 317 320 318 318 317 314 314 315 316 315 315 313 313 312 313 316 314 312 312 313 313 314 315 320 322 320 322 325 327 327 327 326 326 325 325 323 323 323 323 321 319 318 317 319 323 322 320 321 316 313 310 310 311 312 316 320 322 325 325 328
315 316 317 317 318 318 317 315 314 313 312 310 310 310 310 310 310 310 311 311 311 311 311 311 312 314 318 320 322 324 325 325 324 323 323 323 322 321 321 322 322 322 320 319 320 320 320 322 320 320 319 319 316 312 312 317 317 313 319 319 320 325
315 316 316 317 317 317 314 315 314 314 313 313 311 308 307 308 310 309 310 310 310 310 310 311 312 313 315 317 317 320 322 321 320 321 322 321 320 320 320 322 322 322 321 319 321 319 320 320 320 319 320 323 324 323 321 318 313 312 310 316 317 320
316 316 316 317 316 316 314 313 312 311 312 311 312 311 309 310 310 312 310 309 309 308 309 310 311 311 313 316 316 315 315 315 315 317 320 318 320 320 321 322 321 319 320 321 321 320 320 321 319 317 318 319 321 320 320 317 315 316 311 310 313 318
315 315 314 316 316 315 316 313 312 312 311 309 310 311 312 312 310 310 309 307 307 307 308 308 309 310 312 315 317 313 313 314 315 316 317 314 315 316 318 318 316 317 318 318 321 320 320 318 318 315 315 317 317 315 313 314 316 316 312 309 309 310
315 314 314 314 314 313 314 314 311 311 311 311 312 310 309 309 308 307 307 305 306 306 307 308 309 309 310 310 311 313 312 312 313 315 316 312 312 312 312 312 312 314 315 315 314 316 316 315 316 315 317 317 315 314 312 311 310 311 311 313 311 310
315 315 314 313 313 312 312 312 311 311 312 312 310 310 310 307 308 307 306 304 305 305 305 306 307 309 309 310 312 315 311 312 314 317 313 310 310 310 309 310 310 310 310 310 310 309 310 310 311 313 314 317 316 315 314 310 311 311 310 308 306 306
314 314 313 312 312 312 312 311 312 312 312 313 312 311 310 309 308 307 305 305 304 305 305 305 305 307 308 309 311 309 312 310 311 310 310 309 309 309 310 309 309 309 308 308 309 309 307 307 308 308 308 310 312 312 312 312 311 312 311 309 309 307
314 313 313 313 312 312 312 312 312 313 313 313 312 311 310 309 307 307 305 304 304 304 304 306 305 307 307 307 310 309 309 310 310 310 309 309 309 309 309 309 308 307 307 307 306 307 306 305 307 307 306 307 307 308 308 309 309 307 307 308 309 307
314 314 312 312 312 312 313 313 313 314 314 315 312 312 311 311 308 308 306 305 304 304 304 304 305 305 305 307 307 309 309 308 308 309 309 309 309 309 309 308 308 308 307 306 306 306 306 305 305 305 307 307 306 306 306 306 306 306 304 304 303 305
314 315 314 313 312 312 313 313 314 314 315 314 313 313 312 312 310 309 307 306 304 304 305 304 304 306 308 305 306 307 309 307 308 309 309 310 310 309 309 309 308 307 307 306 306 307 306 306 306 305 306 306 306 305 306 306 306 305 306 306 304 302
315 315 315 313 312 313 313 314 314 314 314 315 315 314 314 313 311 311 309 307 305 305 305 305 305 306 307 306 305 306 306 306 307 307 308 308 307 307 307 307 307 306 307 308 305 305 304 305 304 304 304 305 306 305 305 305 306 306 305 305 304 302
316 316 315 314 313 314 314 314 314 314 314 314 314 313 313 312 312 312 311 308 306 305 305 305 307 309 306 305 306 306 305 306 307 307 307 307 306 306 306 307 306 306 306 305 306 304 304 304 303 304 304 305 305 305 305 306 305 305 305 305 304 304

ECMWFFLT2_sfc_thetae_042.txt.gz
Theta_e
347 350 347 348 350 349 349 349 349 347 347 346 346 347 347 348 348 349 349 348 347 351 353 352 349 349 348 349 346 345 345 345 345 345 345 343 342 340 339 340 340 340 339 339 340 339 339 338 338 339 339 343 344 346 346 346 345 344 343 341 342 341
344 345 352 350 349 349 347 349 350 348 348 348 348 348 349 346 348 351 348 349 354 353 353 351 350 348 348 348 347 345 345 346 345 345 344 344 343 342 341 340 339 337 336 337 337 339 338 338 335 337 339 340 347 345 346 345 344 343 342 343 341 340
344 344 349 348 350 350 351 351 350 349 348 347 349 349 346 347 352 349 344 350 351 352 351 351 349 347 342 340 345 345 345 344 344 344 345 344 343 342 342 341 341 339 339 337 341 338 339 338 340 338 338 346 344 345 345 345 344 343 342 343 341 341
345 347 344 347 350 344 348 351 348 348 347 345 346 345 349 350 350 351 351 352 351 351 352 353 345 344 343 343 345 342 342 342 343 343 344 344 344 343 342 341 341 340 341 341 341 339 337 337 341 344 346 344 343 344 345 344 341 342 343 340 340 341
349 349 348 348 349 347 341 344 346 346 343 346 346 348 349 349 350 350 349 349 348 350 350 349 349 347 342 342 345 347 347 345 346 344 344 343 342 343 342 341 341 341 342 341 339 340 338 338 340 341 343 344 344 344 343 344 341 341 344 344 341 342
347 346 346 341 342 343 341 340 341 345 342 342 346 346 347 347 347 347 346 347 349 350 349 347 347 343 342 341 344 345 346 348 346 347 344 343 343 344 345 343 340 339 339 341 340 341 339 338 337 338 340 342 344 345 343 342 342 342 344 343 341 341
344 344 344 342 342 343 341 343 343 342 342 345 345 345 344 346 346 346 349 350 349 347 347 345 343 343 344 346 345 347 346 346 346 345 347 345 345 346 345 342 341 340 340 339 339 338 338 337 338 335 337 337 341 343 344 343 343 343 343 343 341 341
345 345 343 343 341 348 342 341 342 343 342 343 344 344 346 346 348 347 349 349 349 347 345 342 343 343 344 346 345 346 346 343 343 344 346 345 345 344 342 342 342 339 338 339 338 338 337 336 335 337 335 336 339 343 344 341 343 345 344 345 342 341
343 339 342 343 341 341 341 344 345 344 344 342 345 344 345 347 347 347 349 348 348 347 344 342 339 339 343 345 344 345 344 344 345 344 345 345 344 343 343 341 340 338 337 337 337 338 335 336 337 337 336 336 337 339 343 343 344 343 343 344 343 342
340 340 344 344 342 343 345 344 344 346 346 345 344 345 346 345 347 347 347 348 347 345 343 340 340 339 341 344 344 345 345 343 344 345 345 344 345 345 342 340 338 338 337 338 337 337 335 335 334 335 334 336 336 337 340 342 342 341 342 345 345 343
341 345 343 341 343 342 343 343 344 344 344 346 344 344 345 347 347 347 347 348 346 345 345 343 341 340 340 342 344 344 344 345 343 344 345 344 345 344 343 340 340 341 342 342 337 335 334 336 336 334 333 332 334 337 338 341 339 340 339 342 345 344
342 344 343 339 341 341 342 343 346 344 344 345 344 344 345 346 346 346 347 347 346 344 344 343 341 340 340 342 343 343 343 344 343 343 344 343 344 344 343 341 342 344 345 343 339 336 336 335 336 334 333 331 333 335 335 337 336 338 340 343 344 343
341 343 342 340 338 341 343 342 344 343 344 345 345 346 345 345 345 346 347 347 345 343 342 340 343 342 341 341 342 343 341 342 342 341 344 344 343 345 344 344 343 343 342 342 339 337 334 336 335 334 334 332 334 332 333 334 336 339 337 339 340 340
341 339 341 340 341 340 342 342 344 343 345 346 345 345 345 345 346 344 345 345 344 342 341 340 340 341 342 340 340 340 340 340 341 341 343 343 341 342 340 341 341 340 338 338 339 337 335 334 335 334 333 333 335 337 335 334 337 339 339 339 339 343
342 342 341 341 340 342 344 343 342 343 344 344 345 345 346 346 344 345 345 343 343 341 340 341 339 339 340 339 339 339 339 339 337 340 342 344 342 340 343 339 340 339 342 340 340 338 337 336 335 334 335 335 333 333 337 336 337 338 337 340 341 342
344 344 343 343 344 344 344 345 345 342 344 345 343 342 344 345 344 344 344 343 342 339 339 341 341 340 340 340 338 337 338 338 340 337 337 341 339 336 336 336 337 339 339 338 338 337 338 336 336 336 336 337 337 338 337 336 337 335 336 339 338 342
343 343 345 345 345 345 345 344 344 343 343 344 342 341 340 342 341 342 344 341 341 341 341 341 341 340 341 340 338 338 338 341 341 339 336 339 337 336 336 332 336 341 341 338 335 333 335 337 337 337 337 338 340 339 340 340 340 341 335 338 339 339
344 343 345 343 343 343 343 343 342 342 343 341 340 339 339 339 339 339 343 342 342 342 341 339 341 341 341 341 340 339 340 341 340 340 339 339 334 335 335 336 339 340 338 337 333 334 336 338 336 335 336 335 337 336 337 340 340 339 338 335 339 339
344 343 343 342 343 343 342 342 342 342 340 339 339 339 339 337 338 340 341 342 340 341 341 341 340 340 340 339 339 339 339 340 341 340 339 338 337 337 338 340 339 338 340 339 338 338 339 338 337 336 336 335 336 337 339 338 338 340 339 340 340 338
341 340 340 342 341 340 340 340 336 337 336 335 337 336 339 337 338 338 338 338 338 339 338 339 340 341 340 339 339 339 339 339 339 338 337 336 335 336 338 338 338 337 339 339 339 340 339 338 337 337 335 336 337 337 338 337 339 339 340 341 341 341
337 340 340 339 338 338 337 336 336 334 333 335 334 335 335 336 336 335 336 335 336 335 337 337 336 339 341 339 339 338 338 338 338 337 336 336 337 337 339 340 337 339 337 336 336 338 338 338 334 332 335 334 335 336 337 337 337 339 337 340 338 338
334 343 342 341 340 339 337 336 334 333 332 332 332 331 331 335 336 336 337 336 336 336 337 336 336 336 336 336 337 337 338 337 336 337 338 338 338 336 337 337 337 336 337 335 335 337 337 336 330 327 327 327 331 334 335 336 334 336 338 337 335 336
340 342 341 342 341 338 339 339 336 335 334 333 335 335 332 332 332 330 334 334 336 336 334 334 335 335 335 334 334 334 335 336 337 337 337 337 338 337 337 335 336 335 334 336 335 338 337 334 329 331 330 325 323 323 328 330 334 335 337 335 337 334
336 341 341 341 340 340 340 341 341 340 337 335 333 335 334 333 331 330 329 331 333 335 334 333 332 331 332 334 334 332 333 333 334 336 335 336 336 336 336 336 336 335 335 331 331 333 337 337 334 330 322 323 320 320 317 322 325 327 334 329 333 332
326 336 339 340 340 339 339 340 340 340 339 336 335 332 330 328 330 329 328 329 330 333 333 332 333 332 331 332 333 334 333 333 333 334 333 332 334 335 336 337 338 336 335 332 328 331 334 336 336 338 329 321 320 318 318 320 323 325 330 328 329 331
331 332 336 338 339 337 336 334 332 329 327 328 328 327 325 326 326 327 324 328 329 330 331 332 331 331 331 331 333 334 334 331 332 333 332 331 332 332 333 333 336 338 335 334 332 330 330 333 335 336 336 332 328 320 320 322 322 316 326 327 329 329
334 334 335 337 336 336 335 334 333 331 330 328 327 329 329 330 328 326 328 328 327 330 330 332 332 332 332 333 332 332 333 332 332 332 332 332 331 331 330 331 334 335 335 335 334 329 329 330 332 334 334 334 333 332 332 327 320 322 318 321 326 327
335 336 337 337 337 337 335 335 334 332 330 329 329 329 330 330 330 328 326 327 327 327 328 330 331 331 331 330 331 330 332 332 330 329 328 329 329 330 331 332 334 335 335 335 334 330 329 331 328 328 332 331 331 333 332 330 329 324 320 316 316 322
336 338 339 339 338 338 337 336 336 332 329 330 329 329 328 328 327 328 327 327 326 325 327 331 331 331 330 329 329 330 330 330 330 328 327 327 328 329 331 332 332 335 334 334 334 333 331 329 330 329 328 328 328 329 330 331 331 332 323 318 317 319
336 338 339 339 338 338 338 337 336 332 331 329 329 328 327 326 326 327 326 326 325 325 326 329 331 330 330 328 329 330 329 329 329 328 327 326 328 329 330 331 334 335 334 333 333 332 330 330 331 332 330 325 326 328 329 328 329 328 326 325 318 317
333 336 337 338 338 337 337 336 334 333 332 330 329 328 326 326 325 326 325 324 323 325 327 327 328 330 329 328 328 329 328 327 328 327 325 325 328 327 328 329 329 330 330 330 331 330 332 332 332 332 331 329 328 329 327 325 325 327 327 324 321 319
324 327 328 328 332 336 335 335 335 334 333 332 331 328 327 325 324 324 324 322 322 324 326 327 327 326 327 327 327 327 328 327 326 327 327 328 328 327 327 326 326 327 327 329 330 330 333 331 330 329 329 330 329 330 329 328 327 327 325 324 322 318
324 326 327 325 326 329 333 333 334 334 333 333 330 328 326 325 325 322 322 322 322 322 323 323 323 323 324 326 325 325 325 324 324 326 328 328 327 327 325 323 324 324 325 325 326 328 326 329 329 329 326 327 326 328 329 330 329 328 328 326 323 318
323 325 325 323 323 325 329 332 334 334 333 332 330 329 326 325 324 322 322 322 322 321 321 323 323 323 324 323 324 325 326 326 326 326 326 327 326 326 326 321 322 323 323 324 325 325 324 326 326 326 326 324 323 323 324 327 328 329 327 325 321 320
323 324 324 324 323 324 328 331 332 334 333 332 330 328 325 325 324 323 323 322 322 322 322 322 322 324 325 325 326 325 324 324 324 326 325 326 325 325 325 321 322 322 322 323 322 322 323 324 323 322 323 320 320 319 319 319 321 324 324 324 323 322
325 324 325 324 326 326 330 331 332 333 334 333 330 329 326 326 325 324 323 321 322 322 323 323 324 325 325 325 325 324 323 323 322 323 323 324 323 323 324 321 320 322 321 320 321 321 320 321 321 322 321 320 318 317 320 318 318 319 321 323 322 321
328 327 326 326 327 329 331 331 332 333 333 332 330 328 325 326 327 326 324 322 321 322 324 325 325 326 326 326 325 324 324 323 323 322 322 322 322 323 323 322 320 320 319 319 319 318 319 319 320 319 319 320 317 317 318 320 319 319 320 322 322 321

ECMWFFLT2_sfc_thetae_045.txt.gz
Theta_e
348 346 352 348 345 344 345 346 348 348 349 348 348 349 350 350 349 349 348 349 348 344 344 346 345 346 348 347 346 346 346 345 345 343 342 341 342 341 341 341 341 342 341 341 340 340 340 340 340 340 342 343 344 346 346 343 342 341 338 336 339 337
346 348 349 350 346 342 343 345 346 350 350 347 347 348 347 347 346 348 348 348 347 341 343 344 347 346 346 346 347 346 345 345 345 343 341 340 339 340 339 340 339 339 340 339 341 338 339 341 338 341 340 343 347 344 344 344 343 340 338 339 339 341
347 350 343 345 346 346 345 344 349 349 346 342 345 340 344 345 345 345 345 344 345 342 339 340 344 346 346 345 345 345 345 344 344 343 342 341 340 339 340 338 338 338 337 339 338 338 338 337 339 340 341 343 344 343 345 344 342 342 338 339 337 341
343 348 343 345 345 345 345 347 346 349 341 340 341 342 342 345 345 344 343 344 341 340 340 342 344 345 345 345 345 345 343 343 344 344 343 343 342 341 341 341 340 340 341 338 338 337 335 337 338 340 341 342 342 343 344 343 338 339 339 338 337 342
345 346 346 344 346 345 344 346 346 346 344 344 343 343 344 344 343 344 341 343 341 339 341 345 347 345 344 345 344 343 345 345 344 344 344 342 340 340 341 338 338 338 337 339 339 339 340 338 342 339 342 343 344 345 344 343 341 340 340 340 339 342
345 345 346 345 345 345 345 346 345 345 347 345 343 344 343 341 341 341 342 341 347 339 339 343 344 345 343 344 345 341 341 344 342 343 343 343 342 341 339 338 337 334 339 340 341 341 337 338 336 337 339 342 343 344 343 342 342 342 342 340 341 341
344 344 346 347 345 345 345 349 349 348 346 344 345 342 339 341 343 342 343 346 346 341 341 344 345 345 343 343 342 346 343 340 341 343 343 344 342 341 342 341 340 339 341 339 338 338 337 335 337 334 337 338 339 341 341 340 341 341 341 341 340 342
345 344 344 347 345 345 346 346 346 346 346 344 343 340 341 340 340 344 348 346 345 342 341 341 343 344 345 343 341 342 340 341 338 343 341 342 341 341 342 340 339 339 339 337 335 337 337 336 333 336 333 334 339 341 341 339 340 341 342 341 338 342
345 343 344 345 344 346 346 345 346 346 344 343 342 342 339 340 341 348 348 345 344 340 341 344 338 339 342 341 346 343 339 339 342 342 340 342 339 341 339 341 341 341 340 339 338 338 336 335 336 335 336 333 334 338 339 339 340 341 346 342 339 339
342 341 343 340 344 344 345 344 344 344 343 342 342 340 341 342 346 346 343 344 342 346 341 342 342 341 340 341 343 342 345 341 340 342 342 340 345 340 342 341 340 339 336 337 336 337 335 336 333 334 333 334 332 334 338 342 338 338 337 341 341 339
341 343 342 341 340 344 345 344 344 343 341 341 343 344 343 343 344 344 348 345 342 343 343 342 342 342 340 339 339 338 339 340 339 341 342 340 341 342 341 343 339 338 337 337 335 337 334 336 335 332 333 332 333 335 337 339 339 337 341 341 341 340
341 343 344 340 342 342 343 343 345 340 342 341 343 343 345 345 345 343 344 342 340 340 339 345 346 344 341 340 338 337 339 339 342 343 340 338 338 342 342 338 339 340 339 338 337 336 335 338 334 333 333 329 333 334 336 337 338 335 336 341 342 342
343 342 344 343 343 340 344 341 340 337 337 340 344 344 345 345 345 345 343 340 341 341 343 345 347 344 342 338 340 338 341 340 340 342 338 335 334 336 337 339 341 336 339 336 333 334 336 338 338 337 335 331 333 332 333 334 336 337 336 339 341 343
343 343 341 342 343 342 344 342 342 345 343 343 344 344 345 345 344 343 344 341 340 341 342 345 344 342 341 340 340 339 340 340 342 341 337 338 337 340 335 333 332 336 336 338 336 336 333 332 333 336 334 333 332 336 333 331 333 334 337 336 341 341
343 341 342 343 342 341 343 342 342 342 345 346 346 344 344 345 342 344 344 345 341 341 342 343 343 344 342 341 339 338 337 340 341 340 339 338 336 339 337 335 336 336 335 336 338 335 335 333 337 332 333 335 330 331 335 331 332 333 335 338 340 340
340 342 342 343 344 344 345 345 344 343 346 347 345 345 345 344 343 342 342 343 343 344 343 342 342 341 341 339 339 340 340 340 342 342 338 339 338 337 337 338 340 339 336 333 334 333 332 333 333 336 334 334 336 335 332 333 335 333 335 337 337 342
334 339 341 342 343 344 345 346 344 344 344 343 341 341 339 342 340 344 343 339 342 342 344 342 341 341 340 340 339 340 340 341 342 341 339 338 338 338 338 338 339 338 336 333 332 332 333 331 331 336 334 335 336 337 339 337 338 338 334 336 336 341
329 329 329 335 333 337 341 344 342 341 341 339 339 337 336 336 337 339 342 341 342 341 342 340 340 340 340 341 339 340 337 338 337 339 339 338 337 339 339 337 338 336 334 332 334 333 331 334 332 332 334 334 337 337 336 340 340 339 337 336 335 333
330 331 330 331 334 333 342 342 342 341 339 337 337 335 335 335 337 338 343 341 340 341 341 341 340 340 340 340 338 338 337 335 336 338 338 337 336 337 338 338 334 335 336 336 334 334 333 334 333 331 332 334 336 337 340 341 339 339 338 338 335 334
334 332 330 332 332 331 337 339 336 335 333 332 334 334 336 335 336 336 337 337 338 340 342 342 341 341 342 340 336 337 338 336 337 336 335 333 334 336 336 335 334 333 334 334 336 336 334 335 333 331 331 334 335 337 337 341 337 335 335 335 335 336
332 330 330 326 327 329 335 333 333 332 332 332 333 335 334 335 335 336 335 334 335 334 336 336 337 340 340 339 338 338 338 337 337 335 335 334 334 336 336 334 335 335 335 333 334 336 335 334 332 329 331 330 332 333 333 333 331 334 334 336 335 336
331 332 329 327 328 335 337 332 331 332 331 330 328 331 331 335 335 335 335 335 335 335 335 336 336 336 335 335 339 339 338 338 338 334 333 335 335 335 336 335 334 335 334 334 332 335 335 335 329 325 327 328 330 332 333 333 331 333 334 335 335 335
332 332 331 330 330 332 338 337 335 333 331 329 333 334 331 330 331 331 334 333 334 334 333 332 334 334 334 334 334 333 336 337 339 337 335 335 336 334 335 334 334 332 331 332 333 333 335 332 328 327 326 323 321 323 328 328 329 331 332 334 335 335
332 330 329 330 330 336 338 338 338 337 336 335 332 332 332 331 329 329 330 332 334 335 333 332 331 330 330 332 333 332 332 332 333 336 337 335 334 333 332 333 334 334 331 331 327 329 335 335 332 329 322 321 322 321 318 319 323 329 333 332 333 334
332 332 333 330 329 338 338 337 337 337 335 331 330 329 327 327 328 327 328 330 332 334 332 331 331 331 330 331 333 333 332 332 332 332 331 331 333 334 334 335 334 334 330 331 326 329 330 335 335 333 329 322 319 318 318 321 324 326 330 329 331 331
337 333 332 331 335 340 337 336 334 330 325 326 325 326 325 323 323 325 325 329 330 331 332 331 330 330 331 332 332 332 333 331 331 331 331 330 330 331 332 334 335 335 332 334 331 328 328 331 333 331 333 332 328 321 321 323 322 318 328 331 330 329
340 337 337 334 339 338 336 334 332 329 329 327 326 327 328 329 327 324 327 327 327 332 330 331 331 330 331 330 332 332 332 332 330 331 331 331 330 330 328 330 335 334 334 333 332 328 328 329 332 332 331 331 331 330 328 324 320 323 317 323 327 327
336 336 337 340 339 338 334 333 332 331 330 328 329 327 329 328 328 327 325 325 326 329 330 330 330 329 330 330 331 331 332 331 329 329 327 328 329 329 331 332 334 336 333 333 332 330 327 328 325 327 331 329 330 332 331 329 327 323 320 317 318 324
335 334 339 338 337 337 335 334 334 332 329 330 329 328 327 326 326 327 327 326 327 327 329 329 329 329 329 329 329 330 331 330 329 328 326 326 329 330 331 332 335 334 334 333 333 333 331 329 327 327 327 328 326 330 328 328 328 327 321 318 317 319
329 333 338 338 337 337 335 334 334 331 330 326 326 325 326 325 326 326 326 326 325 326 327 328 329 329 329 329 329 329 329 328 328 326 326 327 329 330 330 330 331 332 334 334 334 333 332 332 331 330 330 328 327 326 324 327 325 326 324 323 317 317
329 329 330 329 329 329 334 331 331 330 330 327 326 326 324 325 324 325 323 324 326 326 327 327 327 328 327 327 329 328 327 326 327 327 327 327 328 326 328 329 329 330 330 330 332 334 332 332 332 329 329 329 326 325 325 322 324 321 323 322 322 318
330 331 331 331 330 331 329 333 330 330 329 330 327 326 325 325 324 323 324 324 326 326 327 326 325 324 325 326 326 325 325 326 328 329 328 328 327 325 325 325 325 327 327 329 330 330 330 332 332 330 328 329 329 331 325 324 325 324 323 322 322 317
331 332 332 331 332 331 332 333 330 328 329 330 327 326 325 325 326 324 323 323 324 324 324 323 322 323 325 325 325 326 325 324 326 329 328 326 326 325 324 324 324 324 325 326 327 328 327 327 327 325 325 327 326 327 327 328 327 327 328 327 321 317
331 332 333 334 333 332 333 333 332 329 329 329 329 327 326 325 324 323 323 323 324 323 323 323 321 321 323 323 323 325 325 325 325 325 325 326 327 325 324 320 323 324 323 324 325 326 325 326 326 326 326 323 324 323 324 326 327 329 329 323 319 318
330 332 333 333 334 332 330 332 333 330 330 330 328 326 325 325 325 323 324 324 324 324 323 323 321 323 324 324 324 324 324 324 324 325 325 325 324 325 324 320 322 323 322 323 322 321 321 323 322 321 322 320 321 320 319 320 323 324 324 324 322 320
332 331 331 331 332 331 330 330 333 331 331 329 328 328 325 325 325 325 325 324 324 324 323 322 323 324 323 323 322 322 322 322 322 323 324 323 323 323 323 321 321 322 320 320 322 321 320 321 321 321 321 320 318 317 319 318 319 321 322 323 322 321
332 331 329 330 331 330 330 330 332 332 331 331 329 326 325 326 325 326 326 325 323 323 324 323 324 325 324 324 323 322 321 321 322 322 322 322 322 322 322 321 320 319 319 319 320 319 320 320 321 321 320 320 318 318 318 320 320 320 322 323 322 321

ECMWFFLT2_sfc_thetae_048.txt.gz
Theta_e
341 342 345 347 349 349 347 348 347 348 348 349 349 348 348 346 344 343 342 341 340 345 347 347 347 346 348 346 346 346 345 345 344 343 342 342 342 342 342 341 342 342 343 342 342 342 342 341 341 341 340 342 344 341 342 343 341 337 337 337 337 337
342 341 344 345 347 347 346 346 346 344 345 345 347 347 347 345 345 342 342 341 340 343 346 348 348 347 346 345 346 346 346 344 343 342 342 342 341 341 341 341 342 342 343 342 342 339 338 340 342 340 341 344 342 341 341 344 337 336 336 335 338 340
342 342 344 344 344 345 345 345 345 345 342 344 347 348 347 344 341 339 340 340 340 340 342 344 346 346 345 345 345 346 345 345 343 341 340 340 340 340 340 340 341 341 341 341 340 336 335 335 336 341 341 341 339 342 342 343 339 336 335 335 336 342
344 344 344 344 343 344 343 342 343 343 345 344 344 345 347 343 341 340 341 342 340 342 342 343 346 345 344 344 345 345 345 344 343 341 340 339 339 338 338 338 338 338 339 335 334 333 334 334 335 336 335 338 339 340 340 344 335 335 336 338 338 343
344 344 344 343 344 343 342 343 343 342 341 341 342 343 344 340 338 339 340 342 341 341 341 343 344 345 345 344 343 342 343 342 342 341 342 339 339 337 338 337 337 337 335 333 332 333 336 337 338 336 336 338 340 340 339 340 341 339 336 336 339 343
343 343 344 344 343 343 343 343 342 342 342 342 342 343 343 341 339 339 339 340 342 340 341 344 343 343 342 340 343 342 341 343 341 341 340 341 339 340 336 336 336 333 333 335 336 338 338 338 336 338 338 341 343 344 341 338 340 338 335 337 340 343
343 343 344 345 343 343 343 344 344 344 342 341 342 342 342 342 339 338 339 340 340 339 340 342 340 341 341 341 342 344 344 344 341 344 341 341 341 343 341 342 341 339 338 335 337 337 336 336 336 334 334 336 340 337 339 340 344 339 336 336 341 343
342 343 343 343 342 342 344 344 343 345 343 343 342 341 343 343 339 340 340 340 342 339 340 341 339 339 335 340 337 343 343 341 342 343 346 344 339 341 342 341 339 337 334 335 332 334 335 332 334 334 336 334 337 339 337 336 338 341 336 336 339 342
343 342 343 343 341 343 343 343 343 342 343 344 342 342 343 342 341 340 338 340 340 338 338 338 339 338 340 339 340 342 342 342 340 340 342 343 341 340 341 340 339 337 335 336 335 333 333 334 333 333 333 330 333 335 335 335 341 341 342 335 336 341
342 341 342 342 343 342 342 342 343 342 342 343 343 343 342 342 341 339 339 339 339 339 338 336 337 339 340 339 339 337 338 339 339 338 340 338 342 340 339 338 338 335 336 336 336 336 335 334 333 333 333 331 334 334 333 335 339 340 341 336 335 340
343 344 343 342 341 343 342 340 342 344 343 343 343 343 342 339 340 340 340 338 338 338 338 340 339 338 337 336 334 333 334 337 338 337 339 339 338 338 339 339 336 334 335 335 335 338 337 336 334 332 333 330 331 335 333 336 338 342 339 341 336 337
340 342 344 341 342 341 341 342 343 343 343 342 344 342 341 339 339 339 339 337 336 337 339 338 337 336 337 339 335 335 336 338 339 341 341 339 338 338 339 339 337 337 335 335 336 337 337 336 334 333 333 332 333 330 334 336 338 335 340 338 335 335
339 341 341 340 341 341 341 342 342 344 344 344 344 342 338 337 338 337 337 334 336 337 339 341 340 339 337 337 338 337 339 338 341 339 341 339 338 338 338 338 337 338 339 337 336 336 337 335 335 334 333 333 331 332 336 333 335 335 337 336 337 336
340 338 338 339 338 339 338 342 343 341 342 342 344 342 337 337 337 338 337 336 338 341 341 339 339 342 340 339 338 337 338 339 341 340 340 340 339 339 337 336 335 336 337 338 337 337 335 335 335 337 336 334 331 332 333 331 336 336 337 335 335 335
337 336 336 336 334 336 338 341 342 341 342 343 343 339 336 338 338 335 334 337 338 342 341 341 340 342 340 338 338 339 339 339 340 339 338 337 337 339 338 336 336 337 336 336 336 336 334 334 333 332 333 332 333 331 333 331 331 333 336 335 336 337
335 334 334 335 334 336 339 341 341 340 339 339 339 339 337 339 337 336 335 337 342 342 342 342 341 340 340 338 336 337 340 340 340 339 338 338 338 336 337 337 337 338 335 335 336 335 335 333 333 333 335 332 333 333 332 333 333 335 336 335 335 335
333 333 332 332 332 333 335 335 333 335 338 339 340 340 339 338 339 341 342 340 341 342 340 342 341 341 339 338 340 339 340 340 340 339 338 338 336 338 338 337 335 337 336 333 333 334 335 334 333 333 335 334 333 332 332 334 332 332 333 334 334 335
332 333 333 331 330 333 335 336 336 332 337 337 336 337 336 337 339 345 340 339 341 342 342 340 340 341 339 338 339 339 338 339 339 339 338 338 337 337 337 338 335 336 334 333 334 334 332 333 333 331 331 332 333 333 333 335 333 335 332 332 333 334
332 333 334 333 333 335 336 334 333 330 335 338 339 342 338 336 338 341 341 340 340 341 340 340 341 342 340 340 336 337 337 337 338 338 338 337 336 336 337 337 336 335 336 337 335 335 333 332 333 331 331 331 332 332 333 334 336 335 333 333 333 334
334 334 334 333 334 333 335 336 335 334 333 337 336 337 336 335 337 336 337 338 339 343 339 341 339 340 342 339 337 336 337 337 336 337 337 335 335 335 336 334 334 334 334 335 336 335 333 332 331 330 329 330 332 333 333 332 333 333 334 334 334 333
334 335 335 333 333 335 334 335 339 335 332 334 333 339 338 337 335 337 336 334 336 337 337 338 339 340 338 339 339 338 337 338 338 337 336 335 335 336 336 336 335 334 333 333 332 333 334 332 329 327 329 328 331 333 333 332 333 334 334 332 332 334
334 335 335 335 335 336 336 340 336 333 334 329 330 333 331 333 334 335 335 336 338 336 336 337 337 338 337 336 335 338 338 340 338 337 337 336 336 335 336 335 335 334 336 333 330 332 331 331 327 324 323 323 325 328 331 331 331 332 333 333 332 331
334 333 334 335 338 336 337 341 343 343 335 328 335 334 330 332 333 331 336 335 339 340 335 332 336 336 335 334 335 335 335 339 337 338 336 335 336 334 335 334 334 332 330 331 331 333 331 330 324 326 325 321 319 319 322 327 329 330 332 332 334 331
334 335 334 334 334 336 336 342 337 331 332 331 328 331 332 331 330 330 331 333 338 340 339 338 334 328 331 336 339 335 334 336 334 336 334 333 333 334 334 332 334 332 331 326 328 329 332 331 329 326 318 319 319 319 314 318 321 326 330 330 330 329
333 334 334 333 334 337 339 337 334 333 332 330 333 331 328 329 329 327 330 333 335 338 332 332 333 331 330 332 335 336 336 335 337 337 334 331 332 334 334 334 334 331 329 329 325 327 329 330 330 330 325 320 318 316 315 319 321 322 328 326 327 328
334 334 332 333 334 335 336 338 333 329 328 328 327 330 328 324 327 330 325 334 333 332 333 334 329 330 331 333 335 335 335 332 334 334 332 332 332 332 333 334 334 333 331 330 329 327 326 330 331 331 329 328 326 319 318 320 319 313 324 325 327 327
335 334 333 332 332 331 333 336 334 330 330 329 329 331 333 333 328 327 331 330 331 335 331 331 332 332 332 332 334 333 334 335 332 333 333 334 332 330 328 329 331 333 330 330 330 325 325 325 330 329 330 330 330 329 328 322 316 317 314 321 327 325
336 334 331 328 329 332 332 333 331 333 331 332 331 329 332 331 332 329 329 330 332 334 330 332 333 329 331 332 334 333 335 333 335 329 329 329 328 330 331 332 333 332 332 333 331 328 325 326 324 324 328 329 327 329 330 327 325 322 316 314 316 322
334 331 330 329 331 332 333 331 334 333 333 330 329 330 327 327 329 330 331 332 334 329 331 331 330 332 334 329 329 334 334 330 328 329 326 327 328 330 331 331 332 333 333 332 332 332 329 326 326 325 325 325 327 326 326 326 327 325 320 315 314 316
331 332 332 331 331 332 334 333 334 333 332 327 328 327 327 328 329 333 329 328 330 331 330 333 331 330 332 329 330 329 326 327 330 329 326 327 328 329 330 329 329 330 332 331 332 331 329 329 329 329 328 327 324 324 323 323 322 322 322 321 315 314
330 331 331 333 335 334 337 334 335 335 328 326 327 327 326 326 329 329 326 328 329 331 331 329 332 331 329 328 328 328 330 329 331 330 328 327 328 325 329 330 329 329 330 330 329 329 329 329 329 328 327 326 325 324 321 320 318 320 320 318 316 316
330 329 331 333 333 332 334 334 337 332 329 328 328 326 325 325 325 324 328 329 330 329 327 329 329 329 328 327 327 326 329 330 329 329 327 327 326 325 325 325 327 328 328 329 330 329 329 328 327 327 328 328 325 327 326 324 324 324 322 321 317 314
330 332 332 332 331 333 333 334 334 331 330 329 328 327 326 326 327 327 329 328 329 326 326 325 327 327 329 329 329 328 328 328 327 327 328 328 326 323 324 325 324 324 325 325 326 326 325 325 326 325 325 326 325 327 327 328 328 326 325 324 321 316
331 332 332 332 332 332 333 335 334 332 331 329 329 328 327 326 329 327 329 329 329 327 326 324 326 327 327 325 325 326 327 326 326 326 326 325 323 324 325 320 321 322 321 322 324 324 323 324 322 323 324 321 323 325 325 328 328 325 323 322 320 316
331 332 332 331 331 331 332 332 332 331 331 331 329 328 328 329 328 328 328 329 330 328 325 325 326 326 325 327 328 327 326 324 326 327 327 326 326 324 322 319 320 321 321 321 320 320 320 320 320 320 321 322 320 317 322 325 326 324 324 324 321 317
331 331 332 331 331 331 331 332 332 330 331 331 328 328 328 326 329 330 330 330 329 328 327 326 326 326 325 323 323 324 325 326 327 327 327 325 323 322 323 322 320 320 319 321 321 320 320 321 320 320 320 319 316 316 317 319 321 323 321 322 323 321
331 332 333 333 333 332 332 332 332 332 332 332 330 330 327 328 328 331 332 330 328 327 326 326 326 328 326 327 325 322 322 324 324 322 324 324 324 323 322 320 320 320 319 320 320 319 321 320 321 322 319 318 318 318 318 318 319 320 321 326 323 325